| time (UTC) | temp F | wind direction | speed MPH | gust MPH | rain 1hr in | rain 24hr in | rain mn in | humidity % | barometer mb |
| 20260508170007 | 72 | 123 | 4.0 | 8.0 | 0.00 | 0.04 | 0.02 | 57 | 1009.7 |
| 20260508165839 | 72 | 131 | 6.0 | 8.0 | 0.00 | 0.04 | 0.02 | 57 | 1009.7 |
| 20260508165809 | 72 | 96 | 6.0 | 8.0 | 0.00 | 0.04 | 0.02 | 57 | 1009.8 |
| 20260508165625 | 73 | 119 | 5.0 | 8.0 | 0.00 | 0.04 | 0.02 | 56 | 1009.8 |
| 20260508165442 | 73 | 96 | 6.0 | 8.0 | 0.00 | 0.04 | 0.02 | 57 | 1009.8 |
| 20260508165412 | 73 | 125 | 6.0 | 8.0 | 0.00 | 0.04 | 0.02 | 57 | 1009.7 |
| 20260508165253 | 73 | 111 | 6.0 | 8.0 | 0.00 | 0.05 | 0.02 | 56 | 1009.9 |
| 20260508165110 | 73 | 134 | 4.0 | 8.0 | 0.00 | 0.05 | 0.02 | 56 | 1009.8 |
| 20260508164722 | 73 | 131 | 3.0 | 7.0 | 0.00 | 0.05 | 0.02 | 56 | 1009.9 |
| 20260508164535 | 73 | 128 | 4.0 | 7.0 | 0.00 | 0.05 | 0.02 | 55 | 1009.8 |
| 20260508164340 | 74 | 53 | 4.0 | 7.0 | 0.00 | 0.05 | 0.02 | 55 | 1009.8 |
| 20260508164314 | 73 | 77 | 4.0 | 7.0 | 0.00 | 0.05 | 0.02 | 54 | 1009.7 |
| 20260508164148 | 74 | 131 | 4.0 | 7.0 | 0.00 | 0.05 | 0.02 | 54 | 1009.8 |
| 20260508164007 | 74 | 124 | 4.0 | 7.0 | 0.00 | 0.05 | 0.02 | 55 | 1009.7 |
| 20260508163834 | 74 | 113 | 3.0 | 7.0 | 0.00 | 0.05 | 0.02 | 55 | 1009.8 |
| 20260508163808 | 74 | 142 | 3.0 | 5.0 | 0.00 | 0.05 | 0.02 | 55 | 1009.7 |
| 20260508163616 | 74 | 135 | 2.0 | 4.0 | 0.00 | 0.05 | 0.02 | 55 | 1009.8 |
| 20260508163423 | 74 | 95 | 3.0 | 4.0 | 0.00 | 0.05 | 0.02 | 53 | 1009.8 |
| 20260508163352 | 74 | 120 | 2.0 | 4.0 | 0.00 | 0.05 | 0.02 | 53 | 1009.8 |
| 20260508162610 | 74 | 9 | 0.0 | 1.0 | 0.00 | 0.05 | 0.02 | 53 | 1009.8 |
| 20260508162555 | 74 | 9 | 0.0 | 1.0 | 0.00 | 0.05 | 0.02 | 53 | 1009.7 |
| 20260508162515 | 74 | 9 | 0.0 | 4.0 | 0.00 | 0.05 | 0.02 | 53 | 1009.8 |
| 20260508162412 | 74 | 9 | 0.0 | 4.0 | 0.00 | 0.05 | 0.02 | 55 | 1009.8 |
| 20260508162053 | 74 | 9 | 0.0 | 4.0 | 0.00 | 0.05 | 0.02 | 56 | 1009.8 |
| 20260508161956 | 74 | 9 | 1.0 | 4.0 | 0.00 | 0.05 | 0.02 | 56 | 1009.8 |
| 20260508161918 | 74 | 9 | 3.0 | 4.0 | 0.00 | 0.05 | 0.02 | 56 | 1009.8 |
| 20260508161840 | 74 | 9 | 3.0 | 4.0 | 0.00 | 0.05 | 0.02 | 53 | 1009.8 |
| 20260508161716 | 74 | 346 | 2.0 | 4.0 | 0.00 | 0.05 | 0.02 | 55 | 1009.7 |
| 20260508161536 | 74 | 345 | 1.0 | 3.0 | 0.00 | 0.05 | 0.02 | 55 | 1009.7 |
| 20260508161447 | 74 | 345 | 1.0 | 3.0 | 0.00 | 0.05 | 0.02 | 55 | 1009.7 |
| 20260508161118 | 74 | 345 | 1.0 | 3.0 | 0.00 | 0.05 | 0.02 | 55 | 1009.7 |
| 20260508161041 | 74 | 345 | 1.0 | 3.0 | 0.00 | 0.05 | 0.02 | 58 | 1009.7 |
| 20260508160616 | 74 | 5 | 0.0 | 3.0 | 0.00 | 0.05 | 0.02 | 59 | 1009.8 |
| 20260508160600 | 74 | 5 | 0.0 | 3.0 | 0.00 | 0.05 | 0.02 | 59 | 1009.8 |
| 20260508160459 | 74 | 5 | 0.0 | 3.0 | 0.00 | 0.05 | 0.02 | 59 | 1009.8 |
| 20260508160402 | 74 | 5 | 2.0 | 3.0 | 0.00 | 0.05 | 0.02 | 59 | 1009.8 |
| 20260508160300 | 74 | 5 | 2.0 | 3.0 | 0.00 | 0.05 | 0.02 | 56 | 1009.8 |
| 20260508155525 | 74 | 21 | 0.0 | 8.0 | 0.00 | 0.05 | 0.02 | 59 | 1009.8 |
| 20260508155501 | 74 | 21 | 0.0 | 8.0 | 0.00 | 0.05 | 0.02 | 58 | 1009.8 |
| 20260508155052 | 74 | 44 | 2.0 | 8.0 | 0.00 | 0.05 | 0.02 | 57 | 1009.7 |
| 20260508154955 | 74 | 44 | 2.0 | 8.0 | 0.00 | 0.05 | 0.02 | 58 | 1009.7 |
| 20260508154928 | 74 | 59 | 2.0 | 8.0 | 0.00 | 0.05 | 0.02 | 58 | 1009.7 |
| 20260508154802 | 74 | 74 | 4.0 | 8.0 | 0.00 | 0.05 | 0.02 | 58 | 1009.8 |
| 20260508154621 | 74 | 46 | 0.0 | 7.0 | 0.00 | 0.05 | 0.02 | 56 | 1009.7 |
| 20260508154546 | 74 | 107 | 0.0 | 5.0 | 0.00 | 0.05 | 0.02 | 55 | 1009.6 |
| 20260508154432 | 74 | 130 | 2.0 | 5.0 | 0.00 | 0.05 | 0.02 | 54 | 1009.7 |
| 20260508154239 | 74 | 53 | 0.0 | 4.0 | 0.00 | 0.05 | 0.02 | 57 | 1009.8 |
| 20260508154145 | 74 | 73 | 1.0 | 4.0 | 0.00 | 0.05 | 0.02 | 57 | 1009.7 |
| 20260508154126 | 74 | 73 | 1.0 | 4.0 | 0.00 | 0.05 | 0.02 | 57 | 1009.6 |
| 20260508153953 | 74 | 48 | 1.0 | 6.0 | 0.00 | 0.05 | 0.02 | 59 | 1009.8 |
| 20260508153835 | 74 | 71 | 2.0 | 6.0 | 0.00 | 0.05 | 0.02 | 59 | 1009.7 |
| 20260508153818 | 74 | 81 | 2.0 | 6.0 | 0.00 | 0.05 | 0.02 | 59 | 1009.7 |
| 20260508153301 | 73 | 166 | 3.0 | 6.0 | 0.00 | 0.05 | 0.02 | 58 | 1009.8 |
| 20260508152909 | 73 | 127 | 0.0 | 6.0 | 0.00 | 0.05 | 0.02 | 58 | 1009.7 |
| 20260508152736 | 73 | 78 | 0.0 | 3.0 | 0.00 | 0.05 | 0.02 | 58 | 1009.7 |
| 20260508152605 | 73 | 78 | 2.0 | 4.0 | 0.00 | 0.05 | 0.02 | 59 | 1009.7 |
| 20260508152422 | 73 | 46 | 1.0 | 4.0 | 0.00 | 0.05 | 0.02 | 59 | 1009.8 |
| 20260508152252 | 73 | 46 | 0.0 | 4.0 | 0.00 | 0.05 | 0.02 | 57 | 1009.8 |
| 20260508152217 | 73 | 46 | 1.0 | 4.0 | 0.00 | 0.05 | 0.02 | 56 | 1009.8 |
| 20260508152123 | 73 | 46 | 2.0 | 4.0 | 0.00 | 0.05 | 0.02 | 56 | 1009.8 |
| 20260508151954 | 73 | 63 | 3.0 | 4.0 | 0.00 | 0.05 | 0.02 | 56 | 1009.8 |
| 20260508151819 | 73 | 71 | 3.0 | 4.0 | 0.00 | 0.05 | 0.02 | 58 | 1009.9 |
| 20260508151806 | 73 | 55 | 3.0 | 4.0 | 0.00 | 0.05 | 0.02 | 58 | 1009.9 |
| 20260508151625 | 73 | 59 | 1.0 | 4.0 | 0.00 | 0.05 | 0.02 | 60 | 1010.0 |
| 20260508151211 | 73 | 121 | 2.0 | 4.0 | 0.00 | 0.05 | 0.02 | 61 | 1010.1 |
| 20260508151111 | 73 | 121 | 2.0 | 4.0 | 0.00 | 0.05 | 0.02 | 61 | 1010.1 |
| 20260508150930 | 73 | 143 | 2.0 | 4.0 | 0.00 | 0.05 | 0.02 | 60 | 1010.1 |
| 20260508150804 | 73 | 113 | 2.0 | 4.0 | 0.00 | 0.05 | 0.02 | 60 | 1010.2 |
| 20260508150742 | 73 | 114 | 2.0 | 4.0 | 0.00 | 0.05 | 0.02 | 60 | 1010.2 |
| 20260508150602 | 73 | 101 | 2.0 | 4.0 | 0.00 | 0.05 | 0.02 | 60 | 1010.1 |
| 20260508150427 | 73 | 97 | 2.0 | 4.0 | 0.00 | 0.05 | 0.02 | 61 | 1010.3 |
| 20260508150344 | 73 | 94 | 2.0 | 4.0 | 0.00 | 0.05 | 0.02 | 61 | 1010.2 |
| 20260508150239 | 72 | 93 | 1.0 | 4.0 | 0.00 | 0.05 | 0.02 | 62 | 1010.2 |
| 20260508145832 | 72 | 150 | 2.0 | 5.0 | 0.00 | 0.06 | 0.02 | 60 | 1010.2 |
| 20260508145653 | 72 | 129 | 1.0 | 5.0 | 0.00 | 0.06 | 0.02 | 61 | 1010.1 |
| 20260508145312 | 72 | 170 | 2.0 | 5.0 | 0.00 | 0.06 | 0.02 | 62 | 1010.2 |
| 20260508145205 | 72 | 103 | 3.0 | 5.0 | 0.00 | 0.06 | 0.02 | 60 | 1010.2 |
| 20260508144738 | 72 | 86 | 3.0 | 5.0 | 0.00 | 0.06 | 0.02 | 61 | 1010.2 |
| 20260508144726 | 72 | 68 | 3.0 | 5.0 | 0.00 | 0.06 | 0.02 | 61 | 1010.2 |
| 20260508144251 | 72 | 105 | 1.0 | 8.0 | 0.00 | 0.06 | 0.02 | 63 | 1010.2 |
| 20260508144209 | 72 | 127 | 1.0 | 8.0 | 0.00 | 0.06 | 0.02 | 63 | 1010.3 |
| 20260508144122 | 72 | 123 | 1.0 | 8.0 | 0.00 | 0.06 | 0.02 | 63 | 1010.2 |
| 20260508143951 | 72 | 46 | 1.0 | 8.0 | 0.00 | 0.06 | 0.02 | 62 | 1010.3 |
| 20260508143547 | 72 | 63 | 5.0 | 8.0 | 0.00 | 0.06 | 0.02 | 62 | 1010.3 |
| 20260508143151 | 72 | 78 | 4.0 | 8.0 | 0.00 | 0.06 | 0.02 | 64 | 1010.3 |
| 20260508142654 | 72 | 64 | 4.0 | 8.0 | 0.00 | 0.06 | 0.02 | 63 | 1010.3 |
| 20260508142518 | 72 | 115 | 5.0 | 8.0 | 0.00 | 0.06 | 0.02 | 63 | 1010.3 |
| 20260508142333 | 72 | 113 | 4.0 | 8.0 | 0.00 | 0.06 | 0.02 | 62 | 1010.3 |
| 20260508142242 | 72 | 115 | 3.0 | 8.0 | 0.00 | 0.06 | 0.02 | 63 | 1010.3 |
| 20260508141444 | 72 | 103 | 3.0 | 9.0 | 0.00 | 0.06 | 0.02 | 63 | 1010.4 |
| 20260508141305 | 72 | 67 | 3.0 | 9.0 | 0.00 | 0.06 | 0.02 | 64 | 1010.4 |
| 20260508141132 | 72 | 131 | 5.0 | 9.0 | 0.00 | 0.06 | 0.02 | 64 | 1010.5 |
| 20260508141036 | 72 | 100 | 6.0 | 9.0 | 0.00 | 0.06 | 0.02 | 63 | 1010.4 |
| 20260508140942 | 72 | 108 | 5.0 | 8.0 | 0.00 | 0.06 | 0.02 | 62 | 1010.4 |
| 20260508140800 | 72 | 65 | 3.0 | 7.0 | 0.00 | 0.06 | 0.02 | 64 | 1010.5 |
| 20260508140609 | 72 | 70 | 3.0 | 7.0 | 0.00 | 0.06 | 0.02 | 63 | 1010.5 |
| 20260508140427 | 72 | 124 | 4.0 | 7.0 | 0.00 | 0.06 | 0.02 | 61 | 1010.5 |
| 20260508135655 | 72 | 144 | 3.0 | 9.0 | 0.00 | 0.06 | 0.02 | 62 | 1010.4 |
| 20260508135256 | 72 | 137 | 5.0 | 9.0 | 0.00 | 0.06 | 0.02 | 62 | 1010.3 |
| 20260508135120 | 72 | 155 | 2.0 | 9.0 | 0.00 | 0.06 | 0.02 | 63 | 1010.2 |
| 20260508135025 | 71 | 105 | 3.0 | 9.0 | 0.00 | 0.06 | 0.02 | 62 | 1010.3 |
| 20260508134928 | 71 | 54 | 4.0 | 9.0 | 0.00 | 0.06 | 0.02 | 62 | 1010.3 |
| 20260508134750 | 71 | 90 | 4.0 | 11.0 | 0.00 | 0.06 | 0.02 | 62 | 1010.3 |
| 20260508134607 | 71 | 76 | 5.0 | 11.0 | 0.00 | 0.06 | 0.02 | 62 | 1010.2 |
| 20260508134424 | 71 | 135 | 6.0 | 11.0 | 0.00 | 0.06 | 0.02 | 62 | 1010.2 |
| 20260508133949 | 71 | 133 | 6.0 | 11.0 | 0.00 | 0.06 | 0.02 | 62 | 1010.1 |
| 20260508133855 | 71 | 160 | 6.0 | 11.0 | 0.00 | 0.06 | 0.02 | 62 | 1010.1 |
| 20260508133718 | 71 | 161 | 6.0 | 9.0 | 0.00 | 0.06 | 0.02 | 63 | 1010.1 |
| 20260508133533 | 71 | 96 | 5.0 | 9.0 | 0.00 | 0.06 | 0.02 | 65 | 1010.1 |
| 20260508133353 | 71 | 61 | 5.0 | 8.0 | 0.00 | 0.06 | 0.02 | 66 | 1010.0 |
| 20260508133214 | 71 | 95 | 3.0 | 8.0 | 0.00 | 0.06 | 0.02 | 66 | 1010.1 |
| 20260508133119 | 71 | 96 | 4.0 | 8.0 | 0.00 | 0.06 | 0.02 | 67 | 1010.1 |
| 20260508133021 | 71 | 94 | 3.0 | 8.0 | 0.00 | 0.06 | 0.02 | 66 | 1010.1 |
| 20260508132836 | 71 | 46 | 4.0 | 8.0 | 0.00 | 0.06 | 0.02 | 65 | 1010.1 |
| 20260508132429 | 71 | 84 | 4.0 | 8.0 | 0.00 | 0.06 | 0.02 | 65 | 1010.1 |
| 20260508132105 | 70 | 64 | 4.0 | 8.0 | 0.00 | 0.06 | 0.02 | 66 | 1010.1 |
| 20260508132016 | 70 | 46 | 5.0 | 8.0 | 0.00 | 0.06 | 0.02 | 65 | 1010.1 |
| 20260508131410 | 71 | 52 | 3.0 | 8.0 | 0.00 | 0.06 | 0.02 | 66 | 1010.1 |
| 20260508131235 | 71 | 76 | 2.0 | 7.0 | 0.00 | 0.06 | 0.02 | 65 | 1010.2 |
| 20260508130847 | 71 | 148 | 4.0 | 7.0 | 0.00 | 0.06 | 0.02 | 64 | 1010.0 |
| 20260508130710 | 71 | 119 | 4.0 | 7.0 | 0.00 | 0.06 | 0.02 | 65 | 1010.2 |
| 20260508130534 | 71 | 97 | 4.0 | 9.0 | 0.00 | 0.06 | 0.02 | 66 | 1010.1 |
| 20260508130524 | 71 | 97 | 4.0 | 9.0 | 0.00 | 0.06 | 0.02 | 66 | 1010.1 |
| 20260508130340 | 70 | 110 | 3.0 | 9.0 | 0.00 | 0.06 | 0.02 | 64 | 1010.0 |
| 20260508130200 | 70 | 126 | 3.0 | 10.0 | 0.00 | 0.06 | 0.02 | 65 | 1010.1 |
| 20260508130101 | 70 | 75 | 4.0 | 10.0 | 0.00 | 0.06 | 0.02 | 65 | 1010.1 |
| 20260508130015 | 70 | 61 | 4.0 | 10.0 | 0.00 | 0.06 | 0.02 | 64 | 1010.1 |
| 20260508125834 | 71 | 59 | 5.0 | 10.0 | 0.00 | 0.06 | 0.02 | 64 | 1010.1 |
| 20260508125348 | 71 | 46 | 6.0 | 10.0 | 0.00 | 0.06 | 0.02 | 64 | 1010.2 |
| 20260508125209 | 71 | 79 | 5.0 | 8.0 | 0.00 | 0.06 | 0.02 | 63 | 1010.2 |
| 20260508125106 | 71 | 135 | 5.0 | 8.0 | 0.00 | 0.06 | 0.02 | 64 | 1010.3 |
| 20260508125021 | 71 | 123 | 5.0 | 8.0 | 0.00 | 0.06 | 0.02 | 63 | 1010.2 |
| 20260508124456 | 71 | 146 | 4.0 | 9.0 | 0.00 | 0.06 | 0.02 | 66 | 1010.2 |
| 20260508124439 | 71 | 157 | 4.0 | 9.0 | 0.00 | 0.06 | 0.02 | 66 | 1010.2 |
| 20260508124307 | 71 | 121 | 4.0 | 9.0 | 0.00 | 0.06 | 0.02 | 65 | 1010.3 |
| 20260508124128 | 71 | 77 | 3.0 | 9.0 | 0.00 | 0.06 | 0.02 | 63 | 1010.3 |
| 20260508124020 | 71 | 92 | 5.0 | 10.0 | 0.00 | 0.06 | 0.02 | 63 | 1010.3 |
| 20260508123944 | 71 | 91 | 6.0 | 10.0 | 0.00 | 0.06 | 0.02 | 63 | 1010.4 |
| 20260508123802 | 71 | 71 | 6.0 | 10.0 | 0.00 | 0.06 | 0.02 | 64 | 1010.3 |
| 20260508123623 | 71 | 90 | 2.0 | 10.0 | 0.00 | 0.06 | 0.02 | 64 | 1010.4 |
| 20260508123603 | 71 | 88 | 2.0 | 10.0 | 0.00 | 0.06 | 0.02 | 64 | 1010.4 |
| 20260508123058 | 71 | 119 | 6.0 | 10.0 | 0.00 | 0.06 | 0.02 | 63 | 1010.4 |
| 20260508122953 | 71 | 138 | 6.0 | 10.0 | 0.00 | 0.06 | 0.02 | 64 | 1010.3 |
| 20260508122909 | 71 | 144 | 6.0 | 10.0 | 0.00 | 0.06 | 0.02 | 64 | 1010.4 |
| 20260508122738 | 71 | 150 | 6.0 | 10.0 | 0.00 | 0.06 | 0.02 | 62 | 1010.4 |
| 20260508122557 | 71 | 130 | 5.0 | 10.0 | 0.00 | 0.06 | 0.02 | 63 | 1010.3 |
| 20260508122540 | 71 | 98 | 5.0 | 10.0 | 0.00 | 0.06 | 0.02 | 63 | 1010.3 |
| 20260508122407 | 71 | 79 | 5.0 | 10.0 | 0.00 | 0.06 | 0.02 | 62 | 1010.4 |
| 20260508122226 | 71 | 105 | 6.0 | 10.0 | 0.00 | 0.06 | 0.02 | 64 | 1010.4 |
| 20260508121756 | 71 | 148 | 8.0 | 10.0 | 0.00 | 0.06 | 0.02 | 63 | 1010.3 |
| 20260508121617 | 70 | 84 | 7.0 | 10.0 | 0.00 | 0.07 | 0.02 | 62 | 1010.4 |
| 20260508121557 | 70 | 88 | 7.0 | 10.0 | 0.00 | 0.07 | 0.02 | 61 | 1010.2 |
| 20260508121427 | 70 | 126 | 4.0 | 10.0 | 0.00 | 0.07 | 0.02 | 65 | 1010.3 |
| 20260508121102 | 70 | 59 | 7.0 | 12.0 | 0.00 | 0.07 | 0.02 | 62 | 1010.2 |
| 20260508121017 | 70 | 69 | 6.0 | 12.0 | 0.00 | 0.07 | 0.02 | 63 | 1010.3 |
| 20260508120554 | 70 | 71 | 7.0 | 12.0 | 0.00 | 0.07 | 0.02 | 63 | 1010.4 |
| 20260508120541 | 70 | 83 | 7.0 | 12.0 | 0.00 | 0.07 | 0.02 | 63 | 1010.3 |
| 20260508120019 | 70 | 131 | 6.0 | 11.0 | 0.00 | 0.07 | 0.02 | 63 | 1010.4 |
| 20260508115916 | 70 | 98 | 4.0 | 11.0 | 0.00 | 0.07 | 0.02 | 63 | 1010.4 |
| 20260508115829 | 70 | 126 | 5.0 | 11.0 | 0.00 | 0.07 | 0.02 | 64 | 1010.4 |
| 20260508115651 | 70 | 84 | 5.0 | 11.0 | 0.00 | 0.07 | 0.02 | 64 | 1010.5 |
| 20260508115516 | 70 | 122 | 6.0 | 11.0 | 0.00 | 0.07 | 0.02 | 63 | 1010.4 |
| 20260508115500 | 70 | 96 | 6.0 | 11.0 | 0.00 | 0.07 | 0.02 | 63 | 1010.4 |
| 20260508115324 | 70 | 93 | 7.0 | 11.0 | 0.00 | 0.07 | 0.02 | 63 | 1010.4 |
| 20260508115143 | 70 | 105 | 5.0 | 10.0 | 0.00 | 0.07 | 0.02 | 67 | 1010.4 |
| 20260508115039 | 70 | 95 | 4.0 | 9.0 | 0.00 | 0.07 | 0.02 | 67 | 1010.5 |
| 20260508114950 | 69 | 121 | 4.0 | 9.0 | 0.00 | 0.07 | 0.02 | 67 | 1010.5 |
| 20260508114756 | 69 | 130 | 3.0 | 10.0 | 0.00 | 0.07 | 0.02 | 67 | 1010.5 |
| 20260508114411 | 69 | 93 | 6.0 | 10.0 | 0.00 | 0.07 | 0.02 | 65 | 1010.4 |
| 20260508114240 | 69 | 116 | 5.0 | 10.0 | 0.00 | 0.07 | 0.02 | 66 | 1010.4 |
| 20260508114059 | 69 | 121 | 4.0 | 10.0 | 0.00 | 0.07 | 0.02 | 65 | 1010.4 |
| 20260508113954 | 69 | 101 | 6.0 | 10.0 | 0.00 | 0.07 | 0.02 | 66 | 1010.5 |
| 20260508113913 | 69 | 92 | 5.0 | 10.0 | 0.00 | 0.07 | 0.02 | 66 | 1010.5 |
| 20260508113735 | 69 | 30 | 4.0 | 10.0 | 0.00 | 0.07 | 0.02 | 65 | 1010.4 |
| 20260508113555 | 69 | 65 | 4.0 | 10.0 | 0.00 | 0.07 | 0.02 | 67 | 1010.5 |
| 20260508113536 | 69 | 78 | 4.0 | 10.0 | 0.00 | 0.07 | 0.02 | 67 | 1010.5 |
| 20260508113118 | 69 | 76 | 5.0 | 10.0 | 0.00 | 0.07 | 0.02 | 68 | 1010.5 |
| 20260508113008 | 69 | 44 | 7.0 | 10.0 | 0.00 | 0.07 | 0.02 | 67 | 1010.5 |
| 20260508112151 | 69 | 40 | 4.0 | 10.0 | 0.00 | 0.07 | 0.02 | 67 | 1010.6 |
| 20260508112129 | 69 | 65 | 4.0 | 10.0 | 0.00 | 0.07 | 0.02 | 67 | 1010.6 |
| 20260508112000 | 69 | 85 | 4.0 | 10.0 | 0.00 | 0.07 | 0.02 | 67 | 1010.7 |
| 20260508111804 | 69 | 96 | 5.0 | 10.0 | 0.00 | 0.07 | 0.02 | 66 | 1010.7 |
| 20260508111659 | 69 | 125 | 6.0 | 10.0 | 0.00 | 0.07 | 0.02 | 68 | 1010.7 |
| 20260508111614 | 69 | 94 | 6.0 | 10.0 | 0.00 | 0.07 | 0.02 | 68 | 1010.7 |
| 20260508111431 | 69 | 67 | 5.0 | 10.0 | 0.00 | 0.08 | 0.02 | 69 | 1010.7 |
| 20260508111254 | 69 | 41 | 4.0 | 9.0 | 0.00 | 0.08 | 0.02 | 67 | 1010.7 |
| 20260508111237 | 69 | 76 | 4.0 | 9.0 | 0.00 | 0.08 | 0.02 | 67 | 1010.7 |
| 20260508111106 | 69 | 93 | 5.0 | 9.0 | 0.00 | 0.08 | 0.02 | 67 | 1010.7 |
| 20260508110925 | 69 | 120 | 4.0 | 9.0 | 0.00 | 0.08 | 0.02 | 69 | 1010.7 |
| 20260508110817 | 69 | 106 | 5.0 | 9.0 | 0.00 | 0.08 | 0.02 | 69 | 1010.7 |
| 20260508110734 | 69 | 120 | 5.0 | 8.0 | 0.00 | 0.08 | 0.02 | 69 | 1010.7 |
| 20260508110550 | 68 | 57 | 4.0 | 8.0 | 0.00 | 0.08 | 0.02 | 70 | 1010.7 |
| 20260508110408 | 68 | 65 | 5.0 | 8.0 | 0.00 | 0.08 | 0.02 | 69 | 1010.7 |
| 20260508110347 | 68 | 88 | 4.0 | 8.0 | 0.00 | 0.08 | 0.02 | 69 | 1010.7 |
| 20260508110217 | 68 | 81 | 4.0 | 8.0 | 0.00 | 0.08 | 0.02 | 69 | 1010.7 |
| 20260508110039 | 68 | 48 | 2.0 | 8.0 | 0.00 | 0.08 | 0.02 | 70 | 1010.7 |
| 20260508105935 | 68 | 67 | 4.0 | 8.0 | 0.00 | 0.08 | 0.02 | 70 | 1010.7 |
| 20260508105851 | 68 | 80 | 4.0 | 9.0 | 0.00 | 0.08 | 0.02 | 70 | 1010.8 |
| 20260508105708 | 68 | 119 | 3.0 | 9.0 | 0.00 | 0.08 | 0.02 | 70 | 1010.7 |
| 20260508105527 | 68 | 51 | 5.0 | 9.0 | 0.00 | 0.08 | 0.02 | 70 | 1010.8 |
| 20260508105510 | 68 | 71 | 5.0 | 9.0 | 0.00 | 0.08 | 0.02 | 70 | 1010.8 |
| 20260508104711 | 68 | 77 | 3.0 | 7.0 | 0.00 | 0.08 | 0.02 | 70 | 1010.9 |
| 20260508104148 | 68 | 137 | 3.0 | 7.0 | 0.00 | 0.08 | 0.02 | 70 | 1011.0 |
| 20260508104011 | 68 | 120 | 3.0 | 7.0 | 0.00 | 0.08 | 0.02 | 70 | 1011.1 |
| 20260508103906 | 68 | 180 | 5.0 | 7.0 | 0.00 | 0.08 | 0.02 | 70 | 1010.9 |
| 20260508103828 | 68 | 179 | 5.0 | 7.0 | 0.00 | 0.08 | 0.02 | 69 | 1010.9 |
| 20260508103648 | 68 | 109 | 3.0 | 7.0 | 0.00 | 0.08 | 0.02 | 70 | 1010.9 |
| 20260508103507 | 68 | 129 | 1.0 | 5.0 | 0.00 | 0.08 | 0.02 | 72 | 1010.9 |
| 20260508103442 | 68 | 92 | 1.0 | 5.0 | 0.00 | 0.08 | 0.02 | 73 | 1010.9 |
| 20260508103313 | 67 | 109 | 2.0 | 5.0 | 0.00 | 0.08 | 0.02 | 73 | 1010.9 |
| 20260508103135 | 67 | 33 | 2.0 | 6.0 | 0.00 | 0.08 | 0.02 | 72 | 1011.0 |
| 20260508103023 | 67 | 48 | 2.0 | 6.0 | 0.00 | 0.08 | 0.02 | 72 | 1010.9 |
| 20260508102018 | 67 | 118 | 3.0 | 10.0 | 0.00 | 0.08 | 0.02 | 71 | 1011.0 |
| 20260508101905 | 67 | 113 | 4.0 | 10.0 | 0.00 | 0.08 | 0.02 | 71 | 1011.0 |
| 20260508101834 | 67 | 136 | 4.0 | 10.0 | 0.00 | 0.09 | 0.02 | 71 | 1011.0 |
| 20260508101658 | 67 | 119 | 5.0 | 10.0 | 0.00 | 0.09 | 0.02 | 71 | 1011.0 |
| 20260508101515 | 67 | 118 | 1.0 | 10.0 | 0.00 | 0.09 | 0.02 | 72 | 1010.9 |
| 20260508101441 | 67 | 76 | 1.0 | 10.0 | 0.00 | 0.09 | 0.02 | 72 | 1010.9 |
| 20260508101333 | 67 | 70 | 3.0 | 9.0 | 0.00 | 0.09 | 0.02 | 72 | 1010.9 |
| 20260508101158 | 67 | 63 | 3.0 | 9.0 | 0.00 | 0.09 | 0.02 | 72 | 1011.0 |
| 20260508100448 | 66 | 90 | 2.0 | 8.0 | 0.00 | 0.09 | 0.02 | 74 | 1010.9 |
| 20260508100414 | 66 | 89 | 2.0 | 8.0 | 0.00 | 0.09 | 0.02 | 74 | 1011.0 |
| 20260508100302 | 66 | 52 | 3.0 | 8.0 | 0.00 | 0.09 | 0.02 | 75 | 1010.9 |
| 20260508100115 | 66 | 125 | 4.0 | 8.0 | 0.00 | 0.09 | 0.02 | 75 | 1010.9 |
| 20260508095950 | 66 | 79 | 3.0 | 8.0 | 0.00 | 0.09 | 0.02 | 75 | 1010.9 |
| 20260508095921 | 65 | 117 | 4.0 | 8.0 | 0.00 | 0.09 | 0.02 | 75 | 1010.8 |
| 20260508095406 | 65 | 96 | 5.0 | 8.0 | 0.00 | 0.09 | 0.02 | 76 | 1010.8 |
| 20260508095327 | 65 | 72 | 5.0 | 8.0 | 0.00 | 0.09 | 0.02 | 76 | 1010.8 |
| 20260508095224 | 65 | 60 | 5.0 | 8.0 | 0.00 | 0.09 | 0.02 | 75 | 1010.8 |
| 20260508095045 | 65 | 84 | 4.0 | 8.0 | 0.00 | 0.09 | 0.02 | 75 | 1010.8 |
| 20260508094911 | 66 | 85 | 4.0 | 8.0 | 0.00 | 0.09 | 0.02 | 76 | 1010.8 |
| 20260508094855 | 65 | 71 | 5.0 | 8.0 | 0.00 | 0.09 | 0.02 | 76 | 1010.8 |
| 20260508094723 | 65 | 74 | 2.0 | 8.0 | 0.00 | 0.09 | 0.02 | 76 | 1010.7 |
| 20260508093943 | 65 | 121 | 4.0 | 7.0 | 0.00 | 0.09 | 0.02 | 77 | 1010.8 |
| 20260508093804 | 65 | 34 | 4.0 | 7.0 | 0.00 | 0.09 | 0.02 | 78 | 1010.8 |
| 20260508093754 | 65 | 44 | 4.0 | 7.0 | 0.00 | 0.09 | 0.02 | 78 | 1010.8 |
| 20260508093606 | 65 | 75 | 4.0 | 7.0 | 0.00 | 0.09 | 0.02 | 78 | 1010.9 |
| 20260508093428 | 65 | 49 | 4.0 | 7.0 | 0.00 | 0.09 | 0.02 | 77 | 1010.9 |
| 20260508093340 | 64 | 69 | 4.0 | 9.0 | 0.00 | 0.09 | 0.02 | 77 | 1010.9 |
| 20260508093238 | 64 | 105 | 4.0 | 9.0 | 0.00 | 0.09 | 0.02 | 78 | 1010.9 |
| 20260508093058 | 64 | 102 | 3.0 | 9.0 | 0.00 | 0.09 | 0.02 | 78 | 1010.9 |
| 20260508092919 | 64 | 54 | 2.0 | 9.0 | 0.00 | 0.09 | 0.02 | 78 | 1010.9 |
| 20260508092908 | 64 | 59 | 3.0 | 9.0 | 0.00 | 0.09 | 0.02 | 78 | 1010.9 |
| 20260508092723 | 64 | 51 | 6.0 | 9.0 | 0.00 | 0.09 | 0.02 | 78 | 1010.9 |
| 20260508092324 | 64 | 44 | 4.0 | 8.0 | 0.00 | 0.09 | 0.02 | 78 | 1011.0 |
| 20260508092229 | 64 | 51 | 3.0 | 7.0 | 0.00 | 0.09 | 0.02 | 77 | 1011.0 |
| 20260508092054 | 64 | 85 | 4.0 | 7.0 | 0.00 | 0.09 | 0.02 | 77 | 1011.0 |
| 20260508091906 | 64 | 106 | 2.0 | 8.0 | 0.00 | 0.09 | 0.02 | 78 | 1011.1 |
| 20260508091722 | 64 | 113 | 3.0 | 8.0 | 0.00 | 0.09 | 0.02 | 78 | 1011.0 |
| 20260508091551 | 64 | 98 | 3.0 | 8.0 | 0.00 | 0.09 | 0.02 | 78 | 1011.1 |
| 20260508090837 | 64 | 55 | 4.0 | 6.0 | 0.00 | 0.09 | 0.02 | 79 | 1010.9 |
| 20260508090824 | 64 | 44 | 4.0 | 6.0 | 0.00 | 0.09 | 0.02 | 79 | 1010.9 |
| 20260508090658 | 64 | 56 | 4.0 | 6.0 | 0.00 | 0.09 | 0.02 | 78 | 1010.9 |
| 20260508090517 | 64 | 81 | 3.0 | 6.0 | 0.00 | 0.09 | 0.02 | 78 | 1011.0 |
| 20260508090120 | 64 | 90 | 3.0 | 7.0 | 0.00 | 0.09 | 0.02 | 78 | 1010.9 |
| 20260508085944 | 64 | 46 | 3.0 | 7.0 | 0.00 | 0.09 | 0.02 | 78 | 1010.9 |
| 20260508085812 | 64 | 49 | 3.0 | 7.0 | 0.00 | 0.09 | 0.02 | 78 | 1011.0 |
| 20260508085753 | 64 | 66 | 3.0 | 7.0 | 0.00 | 0.09 | 0.02 | 78 | 1011.0 |
| 20260508085619 | 64 | 69 | 3.0 | 7.0 | 0.00 | 0.09 | 0.02 | 77 | 1011.0 |
| 20260508085444 | 64 | 80 | 4.0 | 7.0 | 0.00 | 0.09 | 0.02 | 77 | 1011.1 |
| 20260508085340 | 64 | 72 | 2.0 | 7.0 | 0.00 | 0.09 | 0.02 | 78 | 1011.1 |
| 20260508085251 | 64 | 86 | 2.0 | 7.0 | 0.00 | 0.09 | 0.02 | 78 | 1011.0 |
| 20260508085111 | 63 | 121 | 2.0 | 7.0 | 0.00 | 0.09 | 0.02 | 79 | 1011.1 |
| 20260508084936 | 63 | 85 | 3.0 | 7.0 | 0.00 | 0.09 | 0.02 | 78 | 1011.1 |
| 20260508084915 | 63 | 82 | 3.0 | 7.0 | 0.00 | 0.09 | 0.02 | 78 | 1011.1 |
| 20260508084730 | 63 | 126 | 4.0 | 7.0 | 0.00 | 0.09 | 0.02 | 78 | 1011.1 |
| 20260508084556 | 63 | 113 | 2.0 | 7.0 | 0.00 | 0.09 | 0.02 | 78 | 1011.1 |
| 20260508084124 | 63 | 82 | 4.0 | 7.0 | 0.00 | 0.09 | 0.02 | 78 | 1011.2 |
| 20260508083942 | 63 | 88 | 3.0 | 5.0 | 0.00 | 0.09 | 0.02 | 80 | 1011.2 |
| 20260508083935 | 63 | 71 | 3.0 | 5.0 | 0.00 | 0.09 | 0.02 | 80 | 1011.2 |
| 20260508083542 | 63 | 122 | 2.0 | 6.0 | 0.00 | 0.09 | 0.02 | 79 | 1011.2 |
| 20260508083232 | 62 | 96 | 3.0 | 6.0 | 0.00 | 0.09 | 0.02 | 80 | 1011.2 |
| 20260508083056 | 62 | 69 | 2.0 | 6.0 | 0.00 | 0.09 | 0.02 | 80 | 1011.2 |
| 20260508082907 | 62 | 103 | 3.0 | 6.0 | 0.00 | 0.09 | 0.02 | 80 | 1011.2 |
| 20260508082432 | 62 | 109 | 2.0 | 4.0 | 0.00 | 0.10 | 0.02 | 81 | 1011.2 |
| 20260508082336 | 62 | 109 | 2.0 | 4.0 | 0.00 | 0.10 | 0.02 | 81 | 1011.2 |
| 20260508082230 | 62 | 109 | 2.0 | 4.0 | 0.00 | 0.10 | 0.02 | 82 | 1011.1 |
| 20260508082049 | 62 | 100 | 2.0 | 4.0 | 0.00 | 0.10 | 0.02 | 82 | 1011.2 |
| 20260508081900 | 61 | 51 | 2.0 | 4.0 | 0.00 | 0.10 | 0.02 | 83 | 1011.2 |
| 20260508081433 | 61 | 71 | 2.0 | 5.0 | 0.00 | 0.10 | 0.02 | 84 | 1011.2 |
| 20260508081339 | 60 | 137 | 2.0 | 6.0 | 0.00 | 0.10 | 0.02 | 84 | 1011.1 |
| 20260508081238 | 60 | 63 | 3.0 | 6.0 | 0.00 | 0.10 | 0.02 | 84 | 1011.1 |
| 20260508081057 | 60 | 111 | 3.0 | 7.0 | 0.00 | 0.10 | 0.02 | 84 | 1011.1 |
| 20260508080648 | 60 | 61 | 3.0 | 7.0 | 0.00 | 0.10 | 0.02 | 84 | 1011.1 |
| 20260508080505 | 60 | 114 | 4.0 | 7.0 | 0.00 | 0.10 | 0.02 | 84 | 1011.1 |
| 20260508080046 | 60 | 123 | 3.0 | 8.0 | 0.00 | 0.10 | 0.02 | 84 | 1011.1 |
| 20260508075901 | 60 | 140 | 5.0 | 8.0 | 0.00 | 0.10 | 0.02 | 84 | 1010.9 |
| 20260508075505 | 60 | 146 | 4.0 | 8.0 | 0.00 | 0.10 | 0.02 | 84 | 1011.0 |
| 20260508075040 | 59 | 114 | 2.0 | 7.0 | 0.00 | 0.11 | 0.02 | 85 | 1010.9 |
| 20260508074706 | 59 | 78 | 3.0 | 7.0 | 0.00 | 0.11 | 0.02 | 85 | 1010.9 |
| 20260508074529 | 59 | 141 | 3.0 | 7.0 | 0.00 | 0.11 | 0.02 | 86 | 1010.8 |
| 20260508074348 | 59 | 113 | 3.0 | 7.0 | 0.00 | 0.11 | 0.02 | 86 | 1010.8 |
| 20260508074304 | 59 | 119 | 2.0 | 7.0 | 0.00 | 0.11 | 0.02 | 86 | 1010.8 |
| 20260508074141 | 59 | 59 | 2.0 | 7.0 | 0.00 | 0.11 | 0.02 | 86 | 1010.8 |
| 20260508074003 | 59 | 87 | 3.0 | 7.0 | 0.00 | 0.11 | 0.02 | 86 | 1010.7 |
| 20260508073836 | 58 | 95 | 3.0 | 7.0 | 0.00 | 0.11 | 0.02 | 86 | 1010.8 |
| 20260508073812 | 58 | 102 | 3.0 | 7.0 | 0.00 | 0.11 | 0.02 | 86 | 1010.8 |
| 20260508073632 | 58 | 120 | 4.0 | 8.0 | 0.00 | 0.11 | 0.02 | 86 | 1010.8 |
| 20260508073458 | 58 | 94 | 4.0 | 8.0 | 0.00 | 0.11 | 0.02 | 86 | 1010.8 |
| 20260508073123 | 58 | 71 | 3.0 | 8.0 | 0.00 | 0.11 | 0.02 | 86 | 1010.7 |
| 20260508072942 | 58 | 82 | 4.0 | 8.0 | 0.00 | 0.11 | 0.02 | 86 | 1010.7 |
| 20260508072819 | 58 | 77 | 5.0 | 8.0 | 0.00 | 0.11 | 0.02 | 86 | 1010.7 |
| 20260508072747 | 58 | 121 | 4.0 | 8.0 | 0.00 | 0.11 | 0.02 | 86 | 1010.7 |
| 20260508072615 | 58 | 119 | 4.0 | 10.0 | 0.00 | 0.11 | 0.02 | 86 | 1010.7 |
| 20260508072114 | 58 | 96 | 5.0 | 10.0 | 0.00 | 0.11 | 0.02 | 86 | 1010.6 |
| 20260508071927 | 58 | 119 | 6.0 | 10.0 | 0.00 | 0.11 | 0.02 | 86 | 1010.7 |
| 20260508071810 | 58 | 115 | 4.0 | 10.0 | 0.00 | 0.11 | 0.02 | 86 | 1010.6 |
| 20260508071350 | 58 | 107 | 4.0 | 9.0 | 0.00 | 0.11 | 0.02 | 87 | 1010.6 |
| 20260508070940 | 57 | 82 | 3.0 | 9.0 | 0.00 | 0.11 | 0.02 | 87 | 1010.6 |
| 20260508070753 | 57 | 115 | 5.0 | 10.0 | 0.00 | 0.12 | 0.02 | 87 | 1010.6 |
| 20260508070607 | 57 | 112 | 6.0 | 10.0 | 0.00 | 0.12 | 0.02 | 87 | 1010.6 |
| 20260508070452 | 57 | 134 | 5.0 | 10.0 | 0.00 | 0.12 | 0.02 | 87 | 1010.6 |
| 20260508070359 | 57 | 90 | 5.0 | 10.0 | 0.00 | 0.12 | 0.02 | 87 | 1010.5 |
| 20260508070218 | 57 | 109 | 6.0 | 10.0 | 0.00 | 0.12 | 0.02 | 87 | 1010.6 |
| 20260508070037 | 57 | 101 | 7.0 | 10.0 | 0.00 | 0.12 | 0.02 | 88 | 1010.6 |
| 20260508065620 | 57 | 86 | 4.0 | 9.0 | 0.01 | 0.12 | 0.02 | 88 | 1010.7 |
| 20260508065440 | 57 | 81 | 4.0 | 8.0 | 0.01 | 0.12 | 0.02 | 89 | 1010.7 |
| 20260508065332 | 57 | 52 | 4.0 | 8.0 | 0.01 | 0.12 | 0.02 | 89 | 1010.7 |
| 20260508064847 | 57 | 109 | 3.0 | 8.0 | 0.01 | 0.12 | 0.02 | 89 | 1010.6 |
| 20260508064708 | 57 | 124 | 4.0 | 8.0 | 0.01 | 0.12 | 0.02 | 89 | 1010.6 |
| 20260508064653 | 57 | 132 | 4.0 | 8.0 | 0.01 | 0.12 | 0.02 | 90 | 1010.6 |
| 20260508064504 | 57 | 71 | 4.0 | 8.0 | 0.01 | 0.12 | 0.02 | 90 | 1010.7 |
| 20260508064323 | 56 | 108 | 3.0 | 6.0 | 0.01 | 0.12 | 0.02 | 90 | 1010.7 |
| 20260508064222 | 56 | 126 | 3.0 | 6.0 | 0.01 | 0.12 | 0.02 | 90 | 1010.7 |
| 20260508063332 | 56 | 101 | 2.0 | 6.0 | 0.01 | 0.12 | 0.02 | 92 | 1010.6 |
| 20260508062142 | 56 | 96 | 3.0 | 6.0 | 0.01 | 0.12 | 0.02 | 92 | 1010.7 |
| 20260508061555 | 56 | 69 | 4.0 | 8.0 | 0.01 | 0.12 | 0.02 | 92 | 1010.6 |
| 20260508061355 | 55 | 62 | 3.0 | 8.0 | 0.01 | 0.12 | 0.02 | 92 | 1010.6 |
| 20260508061217 | 55 | 92 | 3.0 | 8.0 | 0.01 | 0.12 | 0.02 | 92 | 1010.6 |
| 20260508061117 | 55 | 60 | 4.0 | 8.0 | 0.01 | 0.12 | 0.02 | 92 | 1010.6 |
| 20260508060621 | 55 | 62 | 5.0 | 8.0 | 0.01 | 0.12 | 0.02 | 92 | 1010.7 |
| 20260508060426 | 55 | 78 | 3.0 | 7.0 | 0.01 | 0.13 | 0.02 | 93 | 1010.6 |
| 20260508060229 | 55 | 67 | 4.0 | 6.0 | 0.01 | 0.13 | 0.02 | 93 | 1010.6 |
| 20260508060045 | 55 | 66 | 4.0 | 6.0 | 0.01 | 0.13 | 0.02 | 93 | 1010.6 |
| 20260508055946 | 55 | 74 | 4.0 | 6.0 | 0.01 | 0.13 | 0.02 | 93 | 1010.5 |
| 20260508055842 | 55 | 73 | 4.0 | 6.0 | 0.01 | 0.13 | 0.02 | 93 | 1010.6 |
| 20260508055700 | 55 | 61 | 3.0 | 6.0 | 0.01 | 0.13 | 0.02 | 93 | 1010.6 |
| 20260508055517 | 55 | 49 | 4.0 | 6.0 | 0.01 | 0.13 | 0.02 | 93 | 1010.6 |
| 20260508055323 | 55 | 65 | 3.0 | 5.0 | 0.01 | 0.13 | 0.02 | 94 | 1010.6 |
| 20260508055140 | 55 | 75 | 3.0 | 6.0 | 0.01 | 0.13 | 0.02 | 94 | 1010.7 |
| 20260508055043 | 54 | 71 | 4.0 | 6.0 | 0.01 | 0.13 | 0.02 | 94 | 1010.5 |
| 20260508054934 | 54 | 72 | 3.0 | 6.0 | 0.01 | 0.13 | 0.02 | 94 | 1010.7 |
| 20260508054754 | 54 | 92 | 3.0 | 6.0 | 0.01 | 0.13 | 0.02 | 94 | 1010.5 |
| 20260508054602 | 54 | 89 | 3.0 | 6.0 | 0.01 | 0.13 | 0.02 | 94 | 1010.6 |
| 20260508054407 | 54 | 73 | 3.0 | 7.0 | 0.00 | 0.12 | 0.02 | 94 | 1010.6 |
| 20260508054222 | 54 | 103 | 2.0 | 7.0 | 0.00 | 0.12 | 0.02 | 94 | 1010.6 |
| 20260508054126 | 54 | 92 | 3.0 | 7.0 | 0.00 | 0.12 | 0.02 | 95 | 1010.5 |
| 20260508054021 | 54 | 86 | 3.0 | 7.0 | 0.00 | 0.12 | 0.02 | 95 | 1010.6 |
| 20260508053837 | 54 | 53 | 3.0 | 7.0 | 0.00 | 0.12 | 0.02 | 95 | 1010.6 |
| 20260508053646 | 54 | 86 | 3.0 | 7.0 | 0.00 | 0.12 | 0.02 | 95 | 1010.6 |
| 20260508053449 | 54 | 71 | 3.0 | 7.0 | 0.00 | 0.12 | 0.02 | 94 | 1010.6 |
| 20260508053305 | 54 | 78 | 4.0 | 7.0 | 0.00 | 0.12 | 0.02 | 95 | 1010.7 |
| 20260508053210 | 54 | 80 | 4.0 | 7.0 | 0.00 | 0.12 | 0.02 | 95 | 1010.5 |
| 20260508053103 | 53 | 78 | 4.0 | 7.0 | 0.00 | 0.12 | 0.02 | 95 | 1010.5 |
| 20260508052921 | 53 | 76 | 4.0 | 7.0 | 0.00 | 0.12 | 0.02 | 95 | 1010.6 |
| 20260508052735 | 53 | 69 | 3.0 | 7.0 | 0.00 | 0.12 | 0.02 | 95 | 1010.6 |
| 20260508052538 | 53 | 80 | 3.0 | 5.0 | 0.00 | 0.12 | 0.02 | 95 | 1010.5 |
| 20260508052104 | 53 | 74 | 3.0 | 5.0 | 0.00 | 0.12 | 0.02 | 95 | 1010.6 |
| 20260508051956 | 53 | 92 | 3.0 | 5.0 | 0.00 | 0.12 | 0.02 | 95 | 1010.6 |
| 20260508051820 | 53 | 74 | 3.0 | 5.0 | 0.00 | 0.12 | 0.02 | 94 | 1010.6 |
| 20260508051631 | 53 | 61 | 3.0 | 5.0 | 0.00 | 0.13 | 0.02 | 95 | 1010.6 |
| 20260508051446 | 53 | 76 | 3.0 | 4.0 | 0.00 | 0.13 | 0.02 | 94 | 1010.6 |
| 20260508051307 | 53 | 68 | 2.0 | 4.0 | 0.00 | 0.13 | 0.02 | 94 | 1010.6 |
| 20260508051207 | 53 | 67 | 1.0 | 4.0 | 0.00 | 0.13 | 0.02 | 94 | 1010.6 |
| 20260508051108 | 53 | 85 | 1.0 | 4.0 | 0.00 | 0.13 | 0.02 | 94 | 1010.6 |
| 20260508050946 | 53 | 86 | 2.0 | 4.0 | 0.00 | 0.13 | 0.02 | 94 | 1010.6 |
| 20260508050758 | 53 | 86 | 2.0 | 4.0 | 0.00 | 0.13 | 0.02 | 94 | 1010.5 |
| 20260508050610 | 53 | 74 | 3.0 | 4.0 | 0.00 | 0.13 | 0.02 | 94 | 1010.5 |
| 20260508050126 | 53 | 86 | 3.0 | 4.0 | 0.00 | 0.13 | 0.02 | 94 | 1010.5 |
| 20260508050016 | 53 | 82 | 2.0 | 4.0 | 0.00 | 0.13 | 0.02 | 94 | 1010.5 |
| 20260508045836 | 53 | 87 | 2.0 | 3.0 | 0.00 | 0.13 | 0.02 | 94 | 1010.5 |
| 20260508045445 | 53 | 82 | 2.0 | 3.0 | 0.00 | 0.13 | 0.02 | 94 | 1010.6 |
| 20260508044933 | 53 | 107 | 1.0 | 4.0 | 0.00 | 0.13 | 0.02 | 94 | 1010.5 |
| 20260508044158 | 54 | 60 | 2.0 | 4.0 | 0.00 | 0.13 | 0.02 | 94 | 1010.4 |
| 20260508044018 | 54 | 61 | 3.0 | 4.0 | 0.00 | 0.13 | 0.02 | 94 | 1010.5 |
| 20260508043835 | 54 | 59 | 2.0 | 3.0 | 0.00 | 0.13 | 0.02 | 94 | 1010.4 |
| 20260508043702 | 54 | 67 | 2.0 | 3.0 | 0.00 | 0.13 | 0.02 | 94 | 1010.3 |
| 20260508043255 | 54 | 45 | 2.0 | 3.0 | 0.00 | 0.13 | 0.02 | 94 | 1010.3 |
| 20260508043129 | 54 | 75 | 1.0 | 3.0 | 0.00 | 0.13 | 0.02 | 94 | 1010.4 |
| 20260508043003 | 54 | 63 | 1.0 | 4.0 | 0.00 | 0.13 | 0.02 | 93 | 1010.4 |
| 20260508042836 | 54 | 69 | 2.0 | 4.0 | 0.00 | 0.13 | 0.02 | 93 | 1010.3 |
| 20260508042413 | 54 | 74 | 2.0 | 4.0 | 0.00 | 0.13 | 0.02 | 93 | 1010.4 |
| 20260508041942 | 54 | 80 | 2.0 | 4.0 | 0.00 | 0.13 | 0.02 | 93 | 1010.4 |
| 20260508041754 | 54 | 63 | 2.0 | 4.0 | 0.00 | 0.13 | 0.02 | 93 | 1010.4 |
| 20260508041601 | 54 | 72 | 2.0 | 4.0 | 0.00 | 0.13 | 0.02 | 93 | 1010.4 |
| 20260508041416 | 54 | 60 | 3.0 | 4.0 | 0.00 | 0.13 | 0.02 | 93 | 1010.3 |
| 20260508041318 | 54 | 59 | 3.0 | 4.0 | 0.00 | 0.13 | 0.02 | 93 | 1010.4 |
| 20260508040840 | 54 | 67 | 3.0 | 4.0 | 0.00 | 0.13 | 0.02 | 93 | 1010.3 |
| 20260508040654 | 54 | 82 | 3.0 | 4.0 | 0.00 | 0.13 | 0.02 | 93 | 1010.4 |
| 20260508040459 | 54 | 63 | 2.0 | 3.0 | 0.00 | 0.13 | 0.02 | 93 | 1010.4 |
| 20260508040347 | 54 | 61 | 2.0 | 3.0 | 0.00 | 0.13 | 0.02 | 93 | 1010.4 |
| 20260508040009 | 54 | 61 | 2.0 | 3.0 | 0.00 | 0.13 | 0.02 | 93 | 1010.4 |
| 20260508035859 | 54 | 74 | 1.0 | 2.0 | 0.00 | 0.13 | 0.02 | 93 | 1010.4 |
| 20260508035725 | 55 | 88 | 0.0 | 2.0 | 0.00 | 0.13 | 0.02 | 93 | 1010.4 |
| 20260508035624 | 55 | 88 | 0.0 | 3.0 | 0.00 | 0.13 | 0.02 | 93 | 1010.4 |
| 20260508035528 | 55 | 88 | 0.0 | 3.0 | 0.00 | 0.13 | 0.02 | 93 | 1010.4 |
| 20260508035503 | 55 | 88 | 1.0 | 4.0 | 0.00 | 0.13 | 0.02 | 93 | 1010.4 |
| 20260508035420 | 55 | 88 | 1.0 | 4.0 | 0.00 | 0.13 | 0.02 | 93 | 1010.4 |
| 20260508035248 | 55 | 82 | 2.0 | 4.0 | 0.00 | 0.13 | 0.02 | 93 | 1010.5 |
| 20260508035128 | 55 | 82 | 2.0 | 4.0 | 0.00 | 0.13 | 0.02 | 92 | 1010.4 |
| 20260508035118 | 55 | 82 | 2.0 | 4.0 | 0.00 | 0.13 | 0.02 | 92 | 1010.5 |
| 20260508034919 | 55 | 113 | 2.0 | 4.0 | 0.00 | 0.13 | 0.02 | 92 | 1010.5 |
| 20260508034739 | 55 | 112 | 2.0 | 4.0 | 0.00 | 0.13 | 0.02 | 92 | 1010.5 |
| 20260508034334 | 55 | 107 | 2.0 | 4.0 | 0.00 | 0.13 | 0.02 | 92 | 1010.5 |
| 20260508033834 | 55 | 131 | 3.0 | 4.0 | 0.00 | 0.13 | 0.02 | 92 | 1010.5 |
| 20260508033810 | 55 | 127 | 3.0 | 4.0 | 0.00 | 0.13 | 0.02 | 92 | 1010.5 |
| 20260508033620 | 55 | 119 | 3.0 | 4.0 | 0.00 | 0.13 | 0.02 | 92 | 1010.5 |
| 20260508033436 | 55 | 120 | 2.0 | 3.0 | 0.00 | 0.13 | 0.02 | 92 | 1010.5 |
| 20260508033402 | 55 | 126 | 2.0 | 3.0 | 0.00 | 0.13 | 0.02 | 92 | 1010.6 |
| 20260508033247 | 55 | 146 | 2.0 | 3.0 | 0.00 | 0.13 | 0.02 | 92 | 1010.6 |
| 20260508033104 | 55 | 135 | 2.0 | 3.0 | 0.00 | 0.14 | 0.02 | 92 | 1010.6 |
| 20260508033012 | 56 | 134 | 2.0 | 3.0 | 0.00 | 0.14 | 0.02 | 92 | 1010.6 |
| 20260508032929 | 56 | 134 | 2.0 | 3.0 | 0.00 | 0.14 | 0.02 | 92 | 1010.6 |
| 20260508032828 | 56 | 134 | 2.0 | 3.0 | 0.00 | 0.14 | 0.02 | 92 | 1010.6 |
| 20260508032707 | 56 | 130 | 1.0 | 3.0 | 0.00 | 0.14 | 0.02 | 91 | 1010.6 |
| 20260508032647 | 56 | 127 | 1.0 | 3.0 | 0.00 | 0.14 | 0.02 | 91 | 1010.6 |
| 20260508032523 | 56 | 140 | 1.0 | 3.0 | 0.00 | 0.14 | 0.02 | 91 | 1010.7 |
| 20260508032349 | 56 | 155 | 1.0 | 3.0 | 0.00 | 0.14 | 0.02 | 91 | 1010.6 |
| 20260508032241 | 56 | 167 | 1.0 | 3.0 | 0.00 | 0.14 | 0.02 | 91 | 1010.6 |
| 20260508032206 | 56 | 167 | 1.0 | 3.0 | 0.00 | 0.14 | 0.02 | 91 | 1010.7 |
| 20260508032100 | 56 | 155 | 1.0 | 2.0 | 0.00 | 0.14 | 0.02 | 91 | 1010.7 |
| 20260508031715 | 56 | 144 | 0.0 | 3.0 | 0.00 | 0.14 | 0.02 | 91 | 1010.6 |
| 20260508031558 | 56 | 124 | 0.0 | 3.0 | 0.00 | 0.14 | 0.02 | 91 | 1010.6 |
| 20260508031441 | 56 | 124 | 1.0 | 3.0 | 0.00 | 0.14 | 0.02 | 91 | 1010.4 |
| 20260508030342 | 56 | 81 | 2.0 | 4.0 | 0.00 | 0.14 | 0.02 | 92 | 1010.4 |
| 20260508030310 | 56 | 101 | 2.0 | 4.0 | 0.00 | 0.14 | 0.02 | 92 | 1010.5 |
| 20260508030153 | 56 | 106 | 2.0 | 4.0 | 0.00 | 0.14 | 0.02 | 92 | 1010.4 |
| 20260508030014 | 56 | 120 | 1.0 | 4.0 | 0.00 | 0.14 | 0.02 | 91 | 1010.5 |
| 20260508025905 | 56 | 84 | 1.0 | 2.0 | 0.00 | 0.14 | 0.02 | 91 | 1010.6 |
| 20260508025457 | 56 | 112 | 0.0 | 2.0 | 0.00 | 0.14 | 0.02 | 91 | 1010.6 |
| 20260508025406 | 56 | 122 | 0.0 | 2.0 | 0.00 | 0.14 | 0.02 | 91 | 1010.7 |
| 20260508025346 | 56 | 122 | 0.0 | 2.0 | 0.00 | 0.14 | 0.02 | 91 | 1010.6 |
| 20260508025257 | 56 | 122 | 0.0 | 2.0 | 0.00 | 0.14 | 0.02 | 91 | 1010.6 |
| 20260508025153 | 56 | 122 | 1.0 | 2.0 | 0.00 | 0.14 | 0.02 | 91 | 1010.7 |
| 20260508025054 | 56 | 122 | 1.0 | 2.0 | 0.01 | 0.14 | 0.02 | 91 | 1010.7 |
| 20260508025013 | 56 | 119 | 2.0 | 2.0 | 0.01 | 0.14 | 0.02 | 91 | 1010.7 |
| 20260508024857 | 56 | 101 | 1.0 | 2.0 | 0.01 | 0.14 | 0.02 | 91 | 1010.7 |
| 20260508024650 | 56 | 111 | 1.0 | 2.0 | 0.01 | 0.15 | 0.02 | 91 | 1010.7 |
| 20260508024528 | 56 | 76 | 1.0 | 2.0 | 0.01 | 0.15 | 0.02 | 91 | 1010.7 |
| 20260508024407 | 56 | 77 | 1.0 | 2.0 | 0.01 | 0.15 | 0.02 | 92 | 1010.6 |
| 20260508024314 | 56 | 84 | 1.0 | 2.0 | 0.01 | 0.15 | 0.02 | 92 | 1010.7 |
| 20260508024218 | 56 | 78 | 1.0 | 2.0 | 0.01 | 0.15 | 0.02 | 92 | 1010.7 |
| 20260508023731 | 56 | 103 | 0.0 | 3.0 | 0.01 | 0.15 | 0.02 | 92 | 1010.7 |
| 20260508023619 | 56 | 103 | 1.0 | 3.0 | 0.01 | 0.15 | 0.02 | 92 | 1010.7 |
| 20260508023507 | 56 | 103 | 1.0 | 3.0 | 0.01 | 0.15 | 0.02 | 92 | 1010.8 |
| 20260508023422 | 56 | 96 | 2.0 | 4.0 | 0.01 | 0.15 | 0.02 | 92 | 1010.7 |
| 20260508023315 | 56 | 108 | 2.0 | 4.0 | 0.01 | 0.15 | 0.02 | 92 | 1010.7 |
| 20260508023153 | 56 | 120 | 1.0 | 4.0 | 0.01 | 0.15 | 0.02 | 92 | 1010.5 |
| 20260508022803 | 56 | 84 | 2.0 | 4.0 | 0.01 | 0.15 | 0.02 | 92 | 1010.6 |
| 20260508022624 | 56 | 85 | 2.0 | 4.0 | 0.01 | 0.15 | 0.02 | 92 | 1010.6 |
| 20260508022447 | 56 | 88 | 2.0 | 4.0 | 0.01 | 0.15 | 0.02 | 92 | 1010.6 |
| 20260508022351 | 56 | 67 | 2.0 | 4.0 | 0.01 | 0.15 | 0.02 | 92 | 1010.6 |
| 20260508022243 | 56 | 79 | 3.0 | 4.0 | 0.01 | 0.15 | 0.02 | 92 | 1010.5 |
| 20260508022109 | 56 | 82 | 3.0 | 4.0 | 0.01 | 0.15 | 0.02 | 92 | 1010.6 |
| 20260508021925 | 56 | 83 | 2.0 | 4.0 | 0.01 | 0.15 | 0.02 | 92 | 1010.6 |
| 20260508021043 | 56 | 63 | 3.0 | 4.0 | 0.01 | 0.15 | 0.02 | 92 | 1010.6 |
| 20260508020933 | 56 | 93 | 3.0 | 4.0 | 0.01 | 0.15 | 0.02 | 92 | 1010.6 |
| 20260508020756 | 56 | 81 | 3.0 | 4.0 | 0.01 | 0.15 | 0.02 | 92 | 1010.6 |
| 20260508020610 | 56 | 78 | 3.0 | 4.0 | 0.01 | 0.15 | 0.02 | 92 | 1010.5 |
| 20260508015806 | 56 | 72 | 2.0 | 3.0 | 0.01 | 0.16 | 0.02 | 92 | 1010.6 |
| 20260508014928 | 56 | 84 | 1.0 | 3.0 | 0.01 | 0.16 | 0.02 | 92 | 1010.6 |
| 20260508014747 | 56 | 85 | 2.0 | 3.0 | 0.01 | 0.16 | 0.02 | 92 | 1010.6 |
| 20260508014552 | 56 | 82 | 2.0 | 3.0 | 0.01 | 0.16 | 0.02 | 93 | 1010.6 |
| 20260508014331 | 56 | 110 | 2.0 | 4.0 | 0.01 | 0.16 | 0.02 | 93 | 1010.7 |
| 20260508014250 | 56 | 105 | 2.0 | 4.0 | 0.00 | 0.15 | 0.02 | 93 | 1010.7 |
| 20260508014134 | 56 | 88 | 1.0 | 4.0 | 0.00 | 0.15 | 0.01 | 93 | 1010.7 |
| 20260508013949 | 56 | 93 | 2.0 | 4.0 | 0.00 | 0.15 | 0.01 | 93 | 1010.8 |
| 20260508013832 | 56 | 78 | 2.0 | 4.0 | 0.00 | 0.15 | 0.01 | 93 | 1010.7 |
| 20260508013745 | 56 | 96 | 2.0 | 4.0 | 0.00 | 0.15 | 0.01 | 93 | 1010.7 |
| 20260508013619 | 55 | 80 | 2.0 | 4.0 | 0.00 | 0.15 | 0.01 | 93 | 1010.8 |
| 20260508013357 | 55 | 74 | 2.0 | 4.0 | 0.00 | 0.15 | 0.01 | 93 | 1010.8 |
| 20260508013322 | 55 | 94 | 2.0 | 4.0 | 0.00 | 0.15 | 0.01 | 93 | 1010.6 |
| 20260508013157 | 55 | 82 | 2.0 | 3.0 | 0.00 | 0.15 | 0.01 | 93 | 1010.8 |
| 20260508012554 | 55 | 44 | 0.0 | 2.0 | 0.00 | 0.15 | 0.01 | 93 | 1010.8 |
| 20260508012524 | 55 | 44 | 0.0 | 2.0 | 0.00 | 0.15 | 0.01 | 93 | 1010.9 |
| 20260508012337 | 55 | 44 | 0.0 | 0.0 | 0.00 | 0.15 | 0.01 | 93 | 1010.8 |
| 20260508012117 | 55 | 44 | 0.0 | 0.0 | 0.00 | 0.15 | 0.01 | 93 | 1010.9 |
| 20260508012049 | 55 | 44 | 0.0 | 0.0 | 0.00 | 0.15 | 0.01 | 93 | 1010.8 |
| 20260508011922 | 55 | 44 | 0.0 | 0.0 | 0.00 | 0.15 | 0.01 | 93 | 1010.8 |
| 20260508011722 | 55 | 44 | 0.0 | 0.0 | 0.00 | 0.15 | 0.01 | 93 | 1010.8 |
| 20260508011642 | 55 | 44 | 0.0 | 0.0 | 0.00 | 0.15 | 0.01 | 92 | 1010.9 |
| 20260508011614 | 55 | 44 | 0.0 | 0.0 | 0.00 | 0.15 | 0.01 | 92 | 1010.8 |
| 20260508011527 | 55 | 44 | 0.0 | 0.0 | 0.00 | 0.16 | 0.01 | 92 | 1010.8 |
| 20260508011356 | 56 | 44 | 0.0 | 0.0 | 0.00 | 0.16 | 0.01 | 92 | 1010.9 |
| 20260508011341 | 56 | 44 | 0.0 | 0.0 | 0.00 | 0.16 | 0.01 | 92 | 1010.8 |
| 20260508011246 | 56 | 44 | 0.0 | 0.0 | 0.00 | 0.16 | 0.01 | 92 | 1010.9 |
| 20260508011100 | 55 | 44 | 0.0 | 0.0 | 0.00 | 0.16 | 0.01 | 92 | 1010.9 |
| 20260508011035 | 56 | 44 | 0.0 | 0.0 | 0.00 | 0.16 | 0.01 | 92 | 1010.8 |
| 20260508010959 | 56 | 44 | 0.0 | 0.0 | 0.00 | 0.16 | 0.01 | 92 | 1010.8 |
| 20260508010604 | 56 | 44 | 0.0 | 0.0 | 0.00 | 0.16 | 0.01 | 92 | 1011.0 |
| 20260508010249 | 55 | 44 | 0.0 | 0.0 | 0.00 | 0.16 | 0.01 | 92 | 1010.9 |
| 20260508005858 | 55 | 44 | 0.0 | 0.0 | 0.00 | 0.16 | 0.01 | 92 | 1011.0 |
| 20260508005814 | 55 | 44 | 0.0 | 0.0 | 0.00 | 0.16 | 0.01 | 92 | 1010.9 |
| 20260508005116 | 55 | 44 | 0.0 | 0.0 | 0.00 | 0.16 | 0.01 | 92 | 1011.0 |
| 20260508005011 | 55 | 44 | 0.0 | 1.0 | 0.00 | 0.16 | 0.01 | 92 | 1010.9 |
| 20260508004820 | 55 | 44 | 0.0 | 1.0 | 0.00 | 0.16 | 0.01 | 92 | 1011.0 |
| 20260508004754 | 55 | 44 | 0.0 | 2.0 | 0.00 | 0.16 | 0.01 | 92 | 1011.1 |
| 20260508004420 | 55 | 44 | 0.0 | 2.0 | 0.00 | 0.16 | 0.01 | 92 | 1011.1 |
| 20260508004249 | 55 | 44 | 0.0 | 2.0 | 0.00 | 0.16 | 0.01 | 92 | 1011.1 |
| 20260508003750 | 55 | 44 | 1.0 | 2.0 | 0.00 | 0.16 | 0.01 | 92 | 1011.1 |
| 20260508003701 | 55 | 44 | 1.0 | 2.0 | 0.00 | 0.16 | 0.01 | 92 | 1011.1 |
| 20260508003603 | 55 | 44 | 0.0 | 2.0 | 0.00 | 0.16 | 0.01 | 92 | 1011.1 |
| 20260508003458 | 55 | 44 | 0.0 | 0.0 | 0.00 | 0.17 | 0.01 | 92 | 1011.1 |
| 20260508003255 | 55 | 44 | 0.0 | 0.0 | 0.00 | 0.17 | 0.01 | 91 | 1011.0 |
| 20260508002957 | 65 | 68 | 1.0 | 3.0 | 0.01 | 0.24 | 0.18 | 70 | 1010.6 |
| 20260508002857 | 55 | 44 | 0.0 | 0.0 | 0.00 | 0.17 | 0.01 | 91 | 1011.0 |
| 20260508002706 | 55 | 44 | 0.0 | 0.0 | 0.00 | 0.17 | 0.01 | 91 | 1011.1 |
| 20260508002633 | 56 | 44 | 0.0 | 0.0 | 0.00 | 0.17 | 0.01 | 91 | 1011.1 |
| 20260508002548 | 56 | 44 | 0.0 | 0.0 | 0.00 | 0.17 | 0.01 | 91 | 1011.1 |
| 20260508002456 | 56 | 44 | 0.0 | 0.0 | 0.00 | 0.17 | 0.01 | 91 | 1011.1 |
| 20260508002329 | 56 | 44 | 0.0 | 0.0 | 0.00 | 0.17 | 0.01 | 91 | 1011.1 |
| 20260508002238 | 56 | 44 | 0.0 | 0.0 | 0.00 | 0.17 | 0.01 | 91 | 1011.1 |
| 20260508001847 | 56 | 44 | 0.0 | 0.0 | 0.00 | 0.17 | 0.01 | 90 | 1011.2 |
| 20260508001801 | 56 | 44 | 0.0 | 0.0 | 0.00 | 0.17 | 0.01 | 90 | 1011.2 |
| 20260508001708 | 56 | 44 | 0.0 | 0.0 | 0.00 | 0.17 | 0.01 | 90 | 1011.2 |
| 20260508001338 | 56 | 44 | 0.0 | 0.0 | 0.00 | 0.17 | 0.01 | 90 | 1011.2 |
| 20260508001247 | 56 | 44 | 0.0 | 0.0 | 0.00 | 0.17 | 0.01 | 90 | 1011.2 |
| 20260508001137 | 56 | 44 | 0.0 | 0.0 | 0.01 | 0.17 | 0.01 | 90 | 1011.3 |
| 20260508001058 | 56 | 44 | 0.0 | 0.0 | 0.01 | 0.17 | 0.01 | 90 | 1011.2 |
| 20260508001003 | 56 | 44 | 0.0 | 0.0 | 0.01 | 0.17 | 0.01 | 90 | 1011.2 |
| 20260508000531 | 56 | 44 | 0.0 | 0.0 | 0.01 | 0.17 | 0.01 | 90 | 1011.3 |
| 20260508000115 | 56 | 44 | 0.0 | 0.0 | 0.01 | 0.17 | 0.01 | 89 | 1011.4 |
| 20260508000057 | 56 | 44 | 0.0 | 0.0 | 0.01 | 0.17 | 0.01 | 89 | 1011.4 |
| 20260507235734 | 56 | 44 | 0.0 | 0.0 | 0.01 | 0.17 | 0.01 | 89 | 1011.5 |
| 20260507234832 | 56 | 44 | 0.0 | 0.0 | 0.01 | 0.17 | 0.01 | 89 | 1011.5 |
| 20260507234628 | 56 | 44 | 0.0 | 1.0 | 0.01 | 0.17 | 0.01 | 89 | 1011.4 |
| 20260507234524 | 56 | 44 | 0.0 | 1.0 | 0.01 | 0.17 | 0.01 | 89 | 1011.3 |
| 20260507234440 | 56 | 44 | 0.0 | 1.0 | 0.01 | 0.17 | 0.01 | 89 | 1011.4 |
| 20260507234312 | 56 | 44 | 0.0 | 1.0 | 0.01 | 0.17 | 0.01 | 89 | 1011.3 |
| 20260507233938 | 56 | 44 | 0.0 | 1.0 | 0.01 | 0.17 | 0.01 | 88 | 1011.4 |
| 20260507233735 | 56 | 44 | 0.0 | 1.0 | 0.01 | 0.17 | 0.01 | 88 | 1011.3 |
| 20260507233706 | 56 | 44 | 0.0 | 1.0 | 0.01 | 0.17 | 0.01 | 88 | 1011.2 |
| 20260507233225 | 56 | 44 | 0.0 | 1.0 | 0.01 | 0.17 | 0.01 | 88 | 1011.2 |
| 20260507233125 | 56 | 44 | 0.0 | 1.0 | 0.01 | 0.17 | 0.01 | 88 | 1011.3 |
| 20260507233106 | 56 | 44 | 0.0 | 1.0 | 0.01 | 0.17 | 0.01 | 88 | 1011.4 |
| 20260507233020 | 56 | 44 | 0.0 | 1.0 | 0.01 | 0.17 | 0.01 | 88 | 1011.3 |
| 20260507232602 | 56 | 44 | 0.0 | 0.0 | 0.01 | 0.17 | 0.01 | 88 | 1011.3 |
| 20260507232525 | 56 | 44 | 0.0 | 0.0 | 0.01 | 0.17 | 0.01 | 88 | 1011.4 |
| 20260507232011 | 56 | 44 | 0.0 | 0.0 | 0.01 | 0.18 | 0.01 | 88 | 1011.4 |
| 20260507231938 | 56 | 44 | 0.0 | 0.0 | 0.01 | 0.18 | 0.01 | 88 | 1011.3 |
| 20260507231759 | 56 | 44 | 0.0 | 0.0 | 0.01 | 0.18 | 0.01 | 88 | 1011.3 |
| 20260507231549 | 56 | 44 | 0.0 | 0.0 | 0.01 | 0.18 | 0.01 | 88 | 1011.3 |
| 20260507231526 | 56 | 44 | 0.0 | 0.0 | 0.01 | 0.18 | 0.01 | 88 | 1011.4 |
| 20260507231426 | 66 | 87 | 2.0 | 6.0 | 0.00 | 0.24 | 0.17 | 69 | 1010.4 |
| 20260507231341 | 56 | 44 | 0.0 | 0.0 | 0.01 | 0.18 | 0.01 | 88 | 1011.4 |
| 20260507231235 | 56 | 44 | 0.0 | 0.0 | 0.01 | 0.18 | 0.01 | 88 | 1011.3 |
| 20260507231030 | 56 | 44 | 0.0 | 0.0 | 0.01 | 0.18 | 0.01 | 88 | 1011.3 |
| 20260507230942 | 56 | 44 | 0.0 | 0.0 | 0.01 | 0.18 | 0.01 | 88 | 1011.3 |
| 20260507230923 | 66 | 86 | 2.0 | 5.0 | 0.00 | 0.24 | 0.17 | 68 | 1010.5 |
| 20260507230824 | 56 | 44 | 0.0 | 0.0 | 0.01 | 0.18 | 0.01 | 88 | 1011.4 |
| 20260507230615 | 56 | 44 | 0.0 | 0.0 | 0.00 | 0.17 | 0.00 | 88 | 1011.3 |
| 20260507230514 | 57 | 44 | 0.0 | 0.0 | 0.00 | 0.17 | 0.00 | 88 | 1011.3 |
| 20260507230426 | 57 | 44 | 0.0 | 0.0 | 0.00 | 0.17 | 0.00 | 87 | 1011.3 |
| 20260507230240 | 57 | 44 | 0.0 | 0.0 | 0.00 | 0.17 | 0.00 | 87 | 1011.3 |
| 20260507230210 | 57 | 44 | 0.0 | 1.0 | 0.00 | 0.17 | 0.00 | 87 | 1011.4 |
| 20260507230121 | 57 | 44 | 0.0 | 1.0 | 0.00 | 0.17 | 0.00 | 87 | 1011.3 |
| 20260507225940 | 57 | 44 | 0.0 | 2.0 | 0.00 | 0.17 | 0.00 | 87 | 1011.3 |
| 20260507225908 | 57 | 44 | 0.0 | 3.0 | 0.00 | 0.17 | 0.00 | 87 | 1011.3 |
| 20260507225839 | 57 | 44 | 0.0 | 3.0 | 0.00 | 0.17 | 0.00 | 87 | 1011.3 |
| 20260507225746 | 57 | 44 | 0.0 | 3.0 | 0.00 | 0.17 | 0.00 | 87 | 1011.2 |
| 20260507225706 | 57 | 44 | 1.0 | 3.0 | 0.00 | 0.17 | 0.00 | 87 | 1011.2 |
| 20260507225624 | 57 | 44 | 1.0 | 3.0 | 0.00 | 0.18 | 0.00 | 87 | 1011.2 |
| 20260507225227 | 57 | 44 | 2.0 | 3.0 | 0.00 | 0.18 | 0.00 | 87 | 1011.1 |
| 20260507224535 | 57 | 44 | 0.0 | 2.0 | 0.00 | 0.18 | 0.00 | 87 | 1011.2 |
| 20260507224344 | 57 | 44 | 0.0 | 1.0 | 0.00 | 0.18 | 0.00 | 87 | 1011.1 |
| 20260507224313 | 57 | 44 | 0.0 | 1.0 | 0.00 | 0.18 | 0.00 | 87 | 1011.2 |
| 20260507224221 | 57 | 44 | 0.0 | 2.0 | 0.00 | 0.18 | 0.00 | 87 | 1011.2 |
| 20260507224136 | 57 | 44 | 0.0 | 2.0 | 0.00 | 0.18 | 0.00 | 87 | 1011.1 |
| 20260507224104 | 57 | 44 | 0.0 | 2.0 | 0.00 | 0.18 | 0.00 | 87 | 1011.2 |
| 20260507223704 | 57 | 44 | 0.0 | 3.0 | 0.00 | 0.18 | 0.00 | 86 | 1011.2 |
| 20260507223550 | 57 | 44 | 0.0 | 3.0 | 0.00 | 0.18 | 0.00 | 86 | 1011.3 |
| 20260507223522 | 57 | 44 | 0.0 | 3.0 | 0.00 | 0.18 | 0.00 | 86 | 1011.1 |
| 20260507223407 | 57 | 44 | 1.0 | 3.0 | 0.00 | 0.18 | 0.00 | 86 | 1011.1 |
| 20260507223236 | 58 | 55 | 2.0 | 3.0 | 0.00 | 0.18 | 0.00 | 85 | 1011.1 |
| 20260507223152 | 58 | 57 | 2.0 | 3.0 | 0.00 | 0.18 | 0.00 | 85 | 1011.1 |
| 20260507222652 | 58 | 49 | 2.0 | 3.0 | 0.00 | 0.18 | 0.00 | 85 | 1011.1 |
| 20260507222526 | 58 | 56 | 0.0 | 2.0 | 0.00 | 0.18 | 0.00 | 85 | 1011.0 |
| 20260507221811 | 58 | 78 | 0.0 | 0.0 | 0.00 | 0.19 | 0.00 | 85 | 1011.2 |
| 20260507221738 | 58 | 78 | 0.0 | 0.0 | 0.00 | 0.19 | 0.00 | 85 | 1011.2 |
| 20260507221658 | 58 | 78 | 0.0 | 0.0 | 0.00 | 0.19 | 0.00 | 85 | 1011.2 |
| 20260507221624 | 58 | 78 | 0.0 | 0.0 | 0.00 | 0.19 | 0.00 | 85 | 1011.2 |
| 20260507221540 | 58 | 78 | 0.0 | 0.0 | 0.00 | 0.19 | 0.00 | 85 | 1011.2 |
| 20260507220800 | 58 | 78 | 0.0 | 0.0 | 0.00 | 0.19 | 0.00 | 85 | 1011.1 |
| 20260507220712 | 58 | 78 | 0.0 | 0.0 | 0.00 | 0.19 | 0.00 | 85 | 1011.1 |
| 20260507220623 | 58 | 78 | 0.0 | 0.0 | 0.00 | 0.19 | 0.00 | 85 | 1011.2 |
| 20260507220230 | 58 | 78 | 0.0 | 0.0 | 0.00 | 0.19 | 0.19 | 84 | 1011.1 |
| 20260507220155 | 58 | 78 | 0.0 | 0.0 | 0.00 | 0.19 | 0.19 | 84 | 1011.2 |
| 20260507220031 | 58 | 78 | 0.0 | 0.0 | 0.00 | 0.19 | 0.19 | 84 | 1011.2 |
| 20260507220007 | 58 | 78 | 0.0 | 0.0 | 0.00 | 0.19 | 0.19 | 84 | 1011.1 |
| 20260507215906 | 59 | 78 | 0.0 | 0.0 | 0.00 | 0.19 | 0.19 | 83 | 1011.2 |
| 20260507215521 | 59 | 78 | 0.0 | 0.0 | 0.00 | 0.19 | 0.19 | 83 | 1011.1 |
| 20260507215437 | 59 | 78 | 0.0 | 0.0 | 0.00 | 0.19 | 0.19 | 83 | 1011.2 |
| 20260507215337 | 59 | 78 | 0.0 | 0.0 | 0.00 | 0.19 | 0.19 | 83 | 1011.3 |
| 20260507214723 | 59 | 78 | 0.0 | 0.0 | 0.01 | 0.20 | 0.19 | 83 | 1011.2 |
| 20260507214230 | 59 | 78 | 0.0 | 0.0 | 0.01 | 0.20 | 0.19 | 82 | 1011.2 |
| 20260507213907 | 59 | 78 | 0.0 | 0.0 | 0.01 | 0.20 | 0.19 | 82 | 1011.2 |
| 20260507213656 | 59 | 78 | 0.0 | 0.0 | 0.01 | 0.20 | 0.19 | 82 | 1011.2 |
| 20260507213649 | 59 | 78 | 0.0 | 0.0 | 0.01 | 0.20 | 0.19 | 82 | 1011.2 |
| 20260507213606 | 59 | 78 | 0.0 | 0.0 | 0.01 | 0.20 | 0.19 | 82 | 1011.2 |
| 20260507213201 | 60 | 78 | 0.0 | 0.0 | 0.01 | 0.20 | 0.19 | 82 | 1011.2 |
| 20260507213112 | 60 | 78 | 0.0 | 0.0 | 0.01 | 0.20 | 0.19 | 82 | 1011.2 |
| 20260507212606 | 60 | 78 | 0.0 | 0.0 | 0.01 | 0.20 | 0.19 | 81 | 1011.2 |
| 20260507212542 | 60 | 78 | 0.0 | 0.0 | 0.01 | 0.20 | 0.19 | 81 | 1011.2 |
| 20260507212438 | 60 | 78 | 0.0 | 0.0 | 0.01 | 0.20 | 0.19 | 81 | 1011.1 |
| 20260507212252 | 60 | 78 | 0.0 | 0.0 | 0.01 | 0.20 | 0.19 | 81 | 1011.1 |
| 20260507212239 | 60 | 78 | 0.0 | 0.0 | 0.01 | 0.20 | 0.19 | 81 | 1011.2 |
| 20260507212154 | 60 | 78 | 0.0 | 0.0 | 0.01 | 0.20 | 0.19 | 81 | 1011.1 |
| 20260507212116 | 60 | 78 | 0.0 | 0.0 | 0.01 | 0.20 | 0.19 | 81 | 1011.1 |
| 20260507212000 | 60 | 78 | 0.0 | 0.0 | 0.01 | 0.20 | 0.19 | 81 | 1011.1 |
| 20260507211946 | 60 | 78 | 0.0 | 0.0 | 0.01 | 0.20 | 0.19 | 81 | 1011.1 |
| 20260507211502 | 60 | 78 | 0.0 | 0.0 | 0.01 | 0.20 | 0.19 | 81 | 1011.1 |
| 20260507211432 | 60 | 78 | 0.0 | 0.0 | 0.01 | 0.20 | 0.19 | 81 | 1011.1 |
| 20260507211350 | 60 | 78 | 0.0 | 0.0 | 0.01 | 0.20 | 0.19 | 81 | 1011.2 |
| 20260507211027 | 60 | 78 | 0.0 | 0.0 | 0.01 | 0.20 | 0.19 | 81 | 1011.1 |
| 20260507210959 | 60 | 78 | 0.0 | 0.0 | 0.01 | 0.20 | 0.19 | 81 | 1011.1 |
| 20260507210916 | 60 | 78 | 0.0 | 0.0 | 0.01 | 0.20 | 0.19 | 81 | 1011.1 |
| 20260507210754 | 60 | 78 | 0.0 | 0.0 | 0.01 | 0.20 | 0.19 | 81 | 1011.1 |
| 20260507210706 | 60 | 78 | 0.0 | 0.0 | 0.01 | 0.20 | 0.19 | 81 | 1011.0 |
| 20260507210619 | 60 | 78 | 0.0 | 0.0 | 0.01 | 0.20 | 0.19 | 81 | 1011.1 |
| 20260507210542 | 60 | 78 | 0.0 | 3.0 | 0.01 | 0.20 | 0.19 | 81 | 1011.1 |
| 20260507210520 | 60 | 78 | 0.0 | 3.0 | 0.01 | 0.20 | 0.19 | 81 | 1011.1 |
| 20260507210136 | 60 | 78 | 0.0 | 3.0 | 0.01 | 0.20 | 0.19 | 81 | 1011.1 |
| 20260507210129 | 60 | 78 | 0.0 | 3.0 | 0.01 | 0.20 | 0.19 | 81 | 1011.0 |
| 20260507205734 | 60 | 78 | 1.0 | 4.0 | 0.01 | 0.20 | 0.19 | 80 | 1011.0 |
| 20260507205657 | 60 | 70 | 1.0 | 4.0 | 0.00 | 0.20 | 0.19 | 80 | 1011.0 |
| 20260507205551 | 60 | 66 | 2.0 | 4.0 | 0.00 | 0.20 | 0.18 | 80 | 1011.1 |
| 20260507205422 | 60 | 62 | 2.0 | 4.0 | 0.00 | 0.20 | 0.18 | 80 | 1011.0 |
| 20260507205225 | 60 | 73 | 2.0 | 4.0 | 0.00 | 0.20 | 0.18 | 80 | 1011.0 |
| 20260507204700 | 61 | 79 | 0.0 | 3.0 | 0.00 | 0.20 | 0.18 | 80 | 1010.9 |
| 20260507204330 | 61 | 79 | 0.0 | 3.0 | 0.00 | 0.20 | 0.18 | 80 | 1010.9 |
| 20260507204244 | 61 | 79 | 0.0 | 3.0 | 0.00 | 0.20 | 0.18 | 79 | 1010.9 |
| 20260507204155 | 61 | 79 | 0.0 | 3.0 | 0.00 | 0.20 | 0.18 | 79 | 1010.9 |
| 20260507204122 | 61 | 79 | 0.0 | 3.0 | 0.00 | 0.20 | 0.18 | 79 | 1010.9 |
| 20260507204029 | 61 | 79 | 1.0 | 3.0 | 0.00 | 0.20 | 0.18 | 79 | 1010.9 |
| 20260507203907 | 61 | 71 | 1.0 | 3.0 | 0.00 | 0.20 | 0.18 | 79 | 1010.9 |
| 20260507203816 | 61 | 69 | 2.0 | 3.0 | 0.00 | 0.20 | 0.18 | 79 | 1010.9 |
| 20260507203705 | 61 | 80 | 2.0 | 3.0 | 0.00 | 0.20 | 0.18 | 79 | 1010.9 |
| 20260507203526 | 61 | 67 | 1.0 | 3.0 | 0.00 | 0.20 | 0.18 | 78 | 1010.8 |
| 20260507203411 | 61 | 76 | 1.0 | 3.0 | 0.00 | 0.20 | 0.18 | 78 | 1010.9 |
| 20260507203335 | 61 | 62 | 1.0 | 3.0 | 0.00 | 0.20 | 0.18 | 78 | 1010.8 |
| 20260507203212 | 61 | 64 | 0.0 | 3.0 | 0.00 | 0.21 | 0.18 | 78 | 1010.9 |
| 20260507203049 | 62 | 57 | 1.0 | 3.0 | 0.00 | 0.21 | 0.18 | 78 | 1011.0 |
| 20260507203006 | 62 | 57 | 1.0 | 3.0 | 0.00 | 0.21 | 0.18 | 78 | 1010.9 |
| 20260507202859 | 62 | 54 | 0.0 | 2.0 | 0.00 | 0.21 | 0.18 | 78 | 1010.9 |
| 20260507202741 | 62 | 44 | 0.0 | 0.0 | 0.00 | 0.21 | 0.18 | 77 | 1011.0 |
| 20260507202638 | 62 | 44 | 0.0 | 0.0 | 0.00 | 0.21 | 0.18 | 77 | 1010.9 |
| 20260507202330 | 62 | 44 | 0.0 | 0.0 | 0.00 | 0.21 | 0.18 | 77 | 1010.9 |
| 20260507202242 | 62 | 44 | 0.0 | 0.0 | 0.00 | 0.21 | 0.18 | 77 | 1011.0 |
| 20260507202226 | 62 | 44 | 0.0 | 0.0 | 0.00 | 0.21 | 0.18 | 77 | 1010.9 |
| 20260507202146 | 62 | 44 | 0.0 | 0.0 | 0.00 | 0.21 | 0.18 | 77 | 1010.9 |
| 20260507201806 | 62 | 44 | 0.0 | 0.0 | 0.00 | 0.21 | 0.18 | 77 | 1010.9 |
| 20260507201729 | 62 | 44 | 0.0 | 0.0 | 0.00 | 0.21 | 0.18 | 76 | 1010.9 |
| 20260507201636 | 62 | 44 | 0.0 | 0.0 | 0.00 | 0.21 | 0.18 | 76 | 1010.9 |
| 20260507201552 | 62 | 44 | 0.0 | 0.0 | 0.00 | 0.21 | 0.18 | 76 | 1010.9 |
| 20260507201242 | 62 | 44 | 0.0 | 0.0 | 0.00 | 0.21 | 0.18 | 76 | 1010.9 |
| 20260507201204 | 62 | 44 | 0.0 | 0.0 | 0.00 | 0.21 | 0.18 | 76 | 1010.9 |
| 20260507200844 | 63 | 44 | 0.0 | 0.0 | 0.00 | 0.22 | 0.18 | 76 | 1010.8 |
| 20260507200744 | 63 | 44 | 0.0 | 0.0 | 0.00 | 0.22 | 0.18 | 75 | 1010.8 |
| 20260507200642 | 63 | 44 | 0.0 | 0.0 | 0.00 | 0.22 | 0.18 | 75 | 1010.7 |
| 20260507200539 | 63 | 44 | 0.0 | 0.0 | 0.00 | 0.22 | 0.18 | 75 | 1010.8 |
| 20260507200456 | 63 | 44 | 0.0 | 0.0 | 0.01 | 0.22 | 0.18 | 75 | 1010.8 |
| 20260507200130 | 63 | 44 | 0.0 | 0.0 | 0.01 | 0.22 | 0.18 | 75 | 1010.7 |
| 20260507200055 | 63 | 44 | 0.0 | 0.0 | 0.01 | 0.22 | 0.18 | 75 | 1010.7 |
| 20260507195921 | 63 | 44 | 0.0 | 0.0 | 0.01 | 0.22 | 0.18 | 75 | 1010.8 |
| 20260507195824 | 63 | 44 | 0.0 | 0.0 | 0.01 | 0.22 | 0.18 | 74 | 1010.8 |
| 20260507195723 | 63 | 44 | 0.0 | 0.0 | 0.01 | 0.22 | 0.18 | 75 | 1010.7 |
| 20260507195701 | 64 | 44 | 0.0 | 0.0 | 0.01 | 0.22 | 0.18 | 75 | 1010.7 |
| 20260507195326 | 64 | 44 | 0.0 | 0.0 | 0.01 | 0.22 | 0.18 | 74 | 1010.7 |
| 20260507195014 | 64 | 44 | 0.0 | 0.0 | 0.01 | 0.23 | 0.18 | 74 | 1010.7 |
| 20260507194926 | 64 | 44 | 0.0 | 0.0 | 0.01 | 0.23 | 0.18 | 74 | 1010.7 |
| 20260507194824 | 64 | 44 | 0.0 | 0.0 | 0.01 | 0.23 | 0.18 | 74 | 1010.7 |
| 20260507194758 | 64 | 44 | 0.0 | 0.0 | 0.01 | 0.23 | 0.18 | 74 | 1010.6 |
| 20260507194724 | 64 | 44 | 0.0 | 0.0 | 0.01 | 0.23 | 0.18 | 74 | 1010.5 |
| 20260507194638 | 64 | 44 | 0.0 | 0.0 | 0.01 | 0.23 | 0.18 | 73 | 1010.5 |
| 20260507194536 | 64 | 44 | 0.0 | 2.0 | 0.01 | 0.23 | 0.18 | 73 | 1010.6 |
| 20260507194427 | 64 | 44 | 0.0 | 2.0 | 0.01 | 0.23 | 0.18 | 73 | 1010.6 |
| 20260507194326 | 64 | 44 | 0.0 | 2.0 | 0.01 | 0.23 | 0.18 | 73 | 1010.5 |
| 20260507194258 | 64 | 44 | 0.0 | 2.0 | 0.01 | 0.23 | 0.18 | 73 | 1010.5 |
| 20260507194225 | 65 | 44 | 0.0 | 2.0 | 0.01 | 0.23 | 0.18 | 73 | 1010.5 |
| 20260507194113 | 65 | 44 | 1.0 | 2.0 | 0.01 | 0.23 | 0.18 | 72 | 1010.7 |
| 20260507193954 | 65 | 44 | 0.0 | 3.0 | 0.01 | 0.23 | 0.18 | 72 | 1010.6 |
| 20260507193830 | 65 | 58 | 1.0 | 3.0 | 0.01 | 0.23 | 0.18 | 71 | 1010.7 |
| 20260507193707 | 65 | 55 | 0.0 | 3.0 | 0.01 | 0.24 | 0.18 | 70 | 1010.6 |
| 20260507193614 | 65 | 68 | 0.0 | 3.0 | 0.01 | 0.24 | 0.18 | 70 | 1010.6 |
| 20260507193230 | 65 | 68 | 2.0 | 3.0 | 0.01 | 0.24 | 0.18 | 70 | 1010.6 |
| 20260507193040 | 65 | 65 | 2.0 | 4.0 | 0.01 | 0.24 | 0.18 | 70 | 1010.5 |
| 20260507192648 | 66 | 67 | 0.0 | 4.0 | 0.01 | 0.24 | 0.18 | 70 | 1010.5 |
| 20260507192513 | 66 | 108 | 0.0 | 4.0 | 0.01 | 0.24 | 0.18 | 69 | 1010.5 |
| 20260507192437 | 66 | 108 | 1.0 | 4.0 | 0.01 | 0.24 | 0.18 | 69 | 1010.6 |
| 20260507192354 | 66 | 108 | 1.0 | 4.0 | 0.01 | 0.24 | 0.18 | 69 | 1010.6 |
| 20260507192220 | 66 | 90 | 2.0 | 4.0 | 0.01 | 0.24 | 0.18 | 69 | 1010.5 |
| 20260507192035 | 66 | 67 | 2.0 | 4.0 | 0.01 | 0.24 | 0.18 | 69 | 1010.4 |
| 20260507191851 | 66 | 90 | 1.0 | 4.0 | 0.01 | 0.24 | 0.18 | 69 | 1010.5 |
| 20260507191727 | 66 | 96 | 2.0 | 5.0 | 0.00 | 0.23 | 0.18 | 69 | 1010.5 |
| 20260507191632 | 66 | 91 | 1.0 | 5.0 | 0.00 | 0.23 | 0.17 | 69 | 1010.5 |
| 20260507191522 | 66 | 80 | 1.0 | 6.0 | 0.00 | 0.23 | 0.17 | 69 | 1010.5 |
| 20260507191343 | 66 | 67 | 1.0 | 6.0 | 0.00 | 0.24 | 0.17 | 69 | 1010.4 |
| 20260507191214 | 66 | 87 | 2.0 | 6.0 | 0.00 | 0.24 | 0.17 | 69 | 1010.4 |
| 20260507190827 | 66 | 69 | 3.0 | 6.0 | 0.00 | 0.24 | 0.17 | 68 | 1010.4 |
| 20260507190653 | 66 | 71 | 3.0 | 6.0 | 0.00 | 0.24 | 0.17 | 68 | 1010.4 |
| 20260507190554 | 66 | 77 | 3.0 | 6.0 | 0.00 | 0.24 | 0.17 | 68 | 1010.4 |
| 20260507190111 | 66 | 68 | 2.0 | 5.0 | 0.00 | 0.24 | 0.17 | 68 | 1010.4 |
| 20260507185928 | 67 | 63 | 3.0 | 5.0 | 0.00 | 0.24 | 0.17 | 68 | 1010.4 |
| 20260507185751 | 67 | 63 | 2.0 | 5.0 | 0.00 | 0.24 | 0.17 | 68 | 1010.3 |
| 20260507185620 | 67 | 76 | 2.0 | 5.0 | 0.00 | 0.24 | 0.17 | 68 | 1010.4 |
| 20260507185154 | 67 | 55 | 3.0 | 4.0 | 0.00 | 0.24 | 0.17 | 68 | 1010.3 |
| 20260507184821 | 67 | 57 | 2.0 | 5.0 | 0.00 | 0.24 | 0.17 | 67 | 1010.2 |
| 20260507184641 | 67 | 66 | 2.0 | 7.0 | 0.00 | 0.24 | 0.17 | 68 | 1010.3 |
| 20260507184502 | 67 | 90 | 3.0 | 7.0 | 0.00 | 0.24 | 0.17 | 67 | 1010.2 |
| 20260507184406 | 67 | 69 | 3.0 | 7.0 | 0.00 | 0.24 | 0.17 | 67 | 1010.3 |
| 20260507183924 | 67 | 64 | 4.0 | 7.0 | 0.00 | 0.24 | 0.17 | 67 | 1010.3 |
| 20260507183733 | 67 | 63 | 4.0 | 7.0 | 0.00 | 0.24 | 0.17 | 67 | 1010.2 |
| 20260507183540 | 67 | 63 | 5.0 | 7.0 | 0.00 | 0.24 | 0.17 | 66 | 1010.3 |
| 20260507183359 | 67 | 61 | 5.0 | 7.0 | 0.00 | 0.24 | 0.17 | 66 | 1010.2 |
| 20260507183303 | 67 | 73 | 5.0 | 9.0 | 0.00 | 0.24 | 0.17 | 65 | 1010.2 |
| 20260507183214 | 67 | 67 | 5.0 | 9.0 | 0.00 | 0.24 | 0.17 | 66 | 1010.3 |
| 20260507183034 | 67 | 65 | 4.0 | 9.0 | 0.00 | 0.24 | 0.17 | 66 | 1010.3 |
| 20260507182848 | 67 | 59 | 4.0 | 9.0 | 0.00 | 0.24 | 0.17 | 65 | 1010.3 |
| 20260507182214 | 68 | 65 | 4.0 | 8.0 | 0.00 | 0.25 | 0.17 | 65 | 1010.4 |
| 20260507182120 | 68 | 65 | 4.0 | 7.0 | 0.00 | 0.25 | 0.17 | 66 | 1010.4 |
| 20260507181948 | 68 | 71 | 4.0 | 7.0 | 0.00 | 0.25 | 0.17 | 65 | 1010.5 |
| 20260507181755 | 68 | 40 | 4.0 | 7.0 | 0.00 | 0.25 | 0.17 | 66 | 1010.6 |
| 20260507181613 | 68 | 64 | 4.0 | 7.0 | 0.00 | 0.25 | 0.17 | 66 | 1010.6 |
| 20260507181207 | 68 | 52 | 4.0 | 8.0 | 0.00 | 0.25 | 0.17 | 65 | 1010.6 |
| 20260507181027 | 68 | 59 | 3.0 | 9.0 | 0.00 | 0.25 | 0.17 | 65 | 1010.6 |
| 20260507180542 | 68 | 113 | 4.0 | 9.0 | 0.00 | 0.25 | 0.17 | 64 | 1010.5 |
| 20260507180405 | 68 | 92 | 4.0 | 9.0 | 0.00 | 0.25 | 0.17 | 64 | 1010.6 |
| 20260507180310 | 68 | 105 | 5.0 | 9.0 | 0.00 | 0.26 | 0.17 | 64 | 1010.6 |
| 20260507180208 | 68 | 74 | 5.0 | 9.0 | 0.00 | 0.26 | 0.17 | 64 | 1010.6 |
| 20260507180033 | 68 | 144 | 3.0 | 8.0 | 0.00 | 0.26 | 0.17 | 64 | 1010.6 |
| 20260507175734 | 68 | 58 | 3.0 | 8.0 | 0.00 | 0.26 | 0.17 | 64 | 1010.6 |
| 20260507175601 | 68 | 105 | 3.0 | 8.0 | 0.01 | 0.26 | 0.17 | 64 | 1010.6 |
| 20260507175426 | 68 | 109 | 4.0 | 8.0 | 0.01 | 0.26 | 0.17 | 64 | 1010.6 |
| 20260507175330 | 68 | 117 | 5.0 | 11.0 | 0.01 | 0.26 | 0.17 | 63 | 1010.7 |
| 20260507175236 | 68 | 132 | 6.0 | 11.0 | 0.01 | 0.26 | 0.17 | 63 | 1010.5 |
| 20260507174757 | 68 | 81 | 4.0 | 11.0 | 0.01 | 0.26 | 0.17 | 63 | 1010.6 |
| 20260507174745 | 68 | 135 | 4.0 | 11.0 | 0.01 | 0.26 | 0.17 | 63 | 1010.6 |
| 20260507174606 | 68 | 123 | 7.0 | 11.0 | 0.01 | 0.26 | 0.17 | 63 | 1010.5 |
| 20260507174431 | 68 | 105 | 4.0 | 11.0 | 0.01 | 0.26 | 0.17 | 62 | 1010.6 |
| 20260507174035 | 68 | 110 | 5.0 | 8.0 | 0.01 | 0.27 | 0.17 | 64 | 1010.6 |
| 20260507173851 | 68 | 127 | 4.0 | 8.0 | 0.01 | 0.27 | 0.17 | 63 | 1010.5 |
| 20260507173717 | 68 | 140 | 3.0 | 8.0 | 0.01 | 0.27 | 0.17 | 63 | 1010.5 |
| 20260507173701 | 68 | 103 | 3.0 | 8.0 | 0.01 | 0.27 | 0.17 | 63 | 1010.5 |
| 20260507173521 | 68 | 101 | 4.0 | 8.0 | 0.01 | 0.27 | 0.17 | 63 | 1010.6 |
| 20260507173341 | 69 | 132 | 4.0 | 8.0 | 0.01 | 0.27 | 0.17 | 62 | 1010.6 |
| 20260507173301 | 68 | 109 | 4.0 | 8.0 | 0.01 | 0.27 | 0.17 | 63 | 1010.6 |
| 20260507173154 | 68 | 69 | 3.0 | 8.0 | 0.01 | 0.27 | 0.17 | 63 | 1010.6 |
| 20260507173021 | 68 | 101 | 6.0 | 8.0 | 0.01 | 0.27 | 0.17 | 62 | 1010.5 |
| 20260507172851 | 69 | 106 | 6.0 | 10.0 | 0.01 | 0.27 | 0.17 | 62 | 1010.5 |
| 20260507172836 | 69 | 124 | 6.0 | 10.0 | 0.01 | 0.27 | 0.17 | 62 | 1010.4 |
| 20260507172320 | 69 | 115 | 4.0 | 12.0 | 0.01 | 0.27 | 0.17 | 62 | 1010.5 |
| 20260507172214 | 69 | 107 | 6.0 | 12.0 | 0.01 | 0.27 | 0.17 | 62 | 1010.5 |
| 20260507171810 | 69 | 115 | 5.0 | 12.0 | 0.01 | 0.28 | 0.17 | 62 | 1010.5 |
| 20260507171746 | 68 | 108 | 5.0 | 11.0 | 0.01 | 0.28 | 0.17 | 62 | 1010.6 |
| 20260507171606 | 69 | 111 | 7.0 | 9.0 | 0.01 | 0.28 | 0.17 | 62 | 1010.6 |
| 20260507171153 | 69 | 117 | 6.0 | 9.0 | 0.01 | 0.28 | 0.17 | 62 | 1010.5 |
| 20260507171013 | 69 | 98 | 3.0 | 9.0 | 0.01 | 0.28 | 0.17 | 62 | 1010.5 |
| 20260507170331 | 68 | 102 | 6.0 | 10.0 | 0.01 | 0.28 | 0.17 | 61 | 1010.5 |
| 20260507170257 | 68 | 90 | 6.0 | 10.0 | 0.01 | 0.28 | 0.17 | 61 | 1010.5 |